Wetterdaten: Montag, 22.01.2018
Datum Zeit Temp. Aussen Temp. o. S. +5cm Feuchte Auss BlattFeu 1 Luftdruck Regen Sonnenschein Regendauer Solar Windben Empfang
22.01.2018 00:00 2,2 C 1,7 C 0,6 C 92 % 5 lf 1009,6 hPa 0,0 l/m 0 min 2 min 0 W/m 18,0 km/h (3 Bft) 95,65 %
22.01.2018 00:02 2,2 C 1,7 C 0,6 C 92 % 5 lf 1009,5 hPa 0,0 l/m 0 min 2 min 0 W/m 27,0 km/h (4 Bft) 97,56 %
22.01.2018 00:04 2,2 C 1,1 C 0,6 C 92 % 7 lf 1009,5 hPa 0,0 l/m 0 min 2 min 0 W/m 24,8 km/h (4 Bft) 97,87 %
22.01.2018 00:08 2,2 C 1,1 C 0,6 C 93 % 6 lf 1009,3 hPa 0,0 l/m 0 min 4 min 0 W/m 31,5 km/h (5 Bft) 97,83 %
22.01.2018 00:10 2,1 C 1,1 C 0,6 C 93 % 7 lf 1009,4 hPa 0,0 l/m 0 min 2 min 0 W/m 27,0 km/h (4 Bft) 97,87 %
22.01.2018 00:12 2,1 C 1,1 C 0,6 C 93 % 7 lf 1009,3 hPa 0,0 l/m 0 min 2 min 0 W/m 27,0 km/h (4 Bft) 93,48 %
22.01.2018 00:14 2,1 C 1,1 C 0,6 C 93 % 7 lf 1009,2 hPa 0,0 l/m 0 min 2 min 0 W/m 27,0 km/h (4 Bft) 95,74 %
22.01.2018 00:16 2,1 C 1,1 C 0,6 C 93 % 7 lf 1009,2 hPa 0,0 l/m 0 min 2 min 0 W/m 24,8 km/h (4 Bft) 97,87 %
22.01.2018 00:18 2,0 C 1,1 C 0,0 C 93 % 10 lf 1008,9 hPa 0,0 l/m 0 min 2 min 0 W/m 31,5 km/h (5 Bft) 97,87 %
22.01.2018 00:20 1,9 C 1,1 C 0,0 C 93 % 14 lf 1008,8 hPa 0,0 l/m 0 min 2 min 0 W/m 29,3 km/h (5 Bft) 97,96 %
22.01.2018 00:22 1,9 C 1,1 C 0,0 C 93 % 14 lf 1008,8 hPa 0,0 l/m 0 min 2 min 0 W/m 18,0 km/h (3 Bft) 97,87 %
22.01.2018 00:24 1,9 C 1,1 C 0,0 C 93 % 14 lf 1008,6 hPa 0,2 l/m 0 min 2 min 0 W/m 22,5 km/h (4 Bft) 95,65 %
22.01.2018 00:26 1,8 C 1,1 C 0,0 C 93 % 15 lf 1008,6 hPa 0,0 l/m 0 min 2 min 0 W/m 24,8 km/h (4 Bft) 95,74 %
22.01.2018 00:28 1,8 C 1,1 C 0,0 C 93 % 15 lf 1008,6 hPa 0,0 l/m 0 min 2 min 0 W/m 24,8 km/h (4 Bft) 100,00 %
22.01.2018 00:30 1,8 C 1,1 C 0,0 C 93 % 15 lf 1008,6 hPa 0,0 l/m 0 min 2 min 0 W/m 20,3 km/h (4 Bft) 97,87 %
22.01.2018 00:32 1,8 C 1,1 C 0,6 C 93 % 15 lf 1008,6 hPa 0,0 l/m 0 min 2 min 0 W/m 38,3 km/h (5 Bft) 100,00 %
22.01.2018 00:34 1,8 C 1,1 C 0,0 C 93 % 15 lf 1008,5 hPa 0,0 l/m 0 min 2 min 0 W/m 27,0 km/h (4 Bft) 100,00 %
22.01.2018 00:36 1,7 C 1,1 C 0,0 C 94 % 15 lf 1008,4 hPa 0,0 l/m 0 min 2 min 0 W/m 31,5 km/h (5 Bft) 97,83 %
22.01.2018 00:38 1,7 C 1,1 C 0,0 C 94 % 15 lf 1008,4 hPa 0,2 l/m 0 min 2 min 0 W/m 29,3 km/h (5 Bft) 100,00 %
22.01.2018 00:40 1,7 C 1,1 C 0,0 C 94 % 15 lf 1008,4 hPa 0,0 l/m 0 min 2 min 0 W/m 29,3 km/h (5 Bft) 100,00 %
22.01.2018 00:42 1,7 C 1,1 C 0,0 C 94 % 15 lf 1008,3 hPa 0,0 l/m 0 min 2 min 0 W/m 33,8 km/h (5 Bft) 100,00 %
22.01.2018 00:44 1,7 C 1,1 C 0,0 C 94 % 15 lf 1008,2 hPa 0,0 l/m 0 min 2 min 0 W/m 36,0 km/h (5 Bft) 97,87 %
22.01.2018 00:46 1,7 C 1,1 C 0,0 C 94 % 15 lf 1008,2 hPa 0,0 l/m 0 min 2 min 0 W/m 29,3 km/h (5 Bft) 93,48 %
22.01.2018 00:48 1,7 C 1,1 C 0,6 C 94 % 15 lf 1008,2 hPa 0,0 l/m 0 min 2 min 0 W/m 29,3 km/h (5 Bft) 97,87 %
22.01.2018 00:50 1,7 C 1,1 C 0,6 C 94 % 15 lf 1008,2 hPa 0,0 l/m 0 min 2 min 0 W/m 33,8 km/h (5 Bft) 97,87 %
22.01.2018 00:52 1,6 C 1,1 C 0,6 C 94 % 15 lf 1008,1 hPa 0,0 l/m 0 min 2 min 0 W/m 33,8 km/h (5 Bft) 97,87 %
22.01.2018 00:54 1,6 C 1,1 C 0,6 C 94 % 15 lf 1008,1 hPa 0,0 l/m 0 min 2 min 0 W/m 38,3 km/h (5 Bft) 97,87 %
22.01.2018 00:56 1,6 C 1,1 C 0,6 C 94 % 15 lf 1008,2 hPa 0,2 l/m 0 min 2 min 0 W/m 31,5 km/h (5 Bft) 97,87 %
22.01.2018 00:58 1,6 C 1,1 C 0,6 C 94 % 15 lf 1008,2 hPa 0,0 l/m 0 min 2 min 0 W/m 27,0 km/h (4 Bft) 93,48 %
22.01.2018 01:00 1,6 C 1,1 C 0,6 C 95 % 15 lf 1008,2 hPa 0,0 l/m 0 min 2 min 0 W/m 29,3 km/h (5 Bft) 93,62 %
22.01.2018 01:02 1,6 C 1,1 C 0,6 C 95 % 15 lf 1008,2 hPa 0,0 l/m 0 min 2 min 0 W/m 27,0 km/h (4 Bft) 95,74 %
22.01.2018 01:04 1,6 C 1,1 C 0,6 C 95 % 15 lf 1008,1 hPa 0,0 l/m 0 min 0 min 0 W/m 29,3 km/h (5 Bft) 87,23 %
22.01.2018 01:06 1,6 C 1,1 C 0,6 C 95 % 15 lf 1008,1 hPa 0,0 l/m 0 min 2 min 0 W/m 24,8 km/h (4 Bft) 95,74 %
22.01.2018 01:08 1,6 C 1,1 C 0,6 C 95 % 15 lf 1008,0 hPa 0,0 l/m 0 min 0 min 0 W/m 22,5 km/h (4 Bft) 95,74 %
22.01.2018 01:10 1,6 C 1,1 C 0,6 C 95 % 15 lf 1008,0 hPa 0,0 l/m 0 min 2 min 0 W/m 20,3 km/h (4 Bft) 95,65 %
22.01.2018 01:12 1,6 C 1,1 C 0,6 C 95 % 15 lf 1008,0 hPa 0,0 l/m 0 min 0 min 0 W/m 22,5 km/h (4 Bft) 93,62 %
22.01.2018 01:14 1,7 C 1,1 C 0,6 C 95 % 15 lf 1008,0 hPa 0,0 l/m 0 min 2 min 0 W/m 27,0 km/h (4 Bft) 95,74 %
22.01.2018 01:16 1,7 C 1,1 C 0,6 C 95 % 15 lf 1007,9 hPa 0,0 l/m 0 min 2 min 0 W/m 42,8 km/h (6 Bft) 93,75 %
22.01.2018 01:18 1,7 C 1,1 C 0,6 C 95 % 15 lf 1008,0 hPa 0,0 l/m 0 min 2 min 0 W/m 27,0 km/h (4 Bft) 95,74 %
22.01.2018 01:20 1,7 C 1,1 C 0,6 C 95 % 15 lf 1007,9 hPa 0,2 l/m 0 min 2 min 0 W/m 29,3 km/h (5 Bft) 91,30 %
22.01.2018 01:22 1,7 C 1,1 C 0,6 C 95 % 15 lf 1007,8 hPa 0,0 l/m 0 min 2 min 0 W/m 33,8 km/h (5 Bft) 93,62 %
22.01.2018 01:24 1,7 C 1,1 C 0,6 C 95 % 15 lf 1007,8 hPa 0,0 l/m 0 min 2 min 0 W/m 24,8 km/h (4 Bft) 95,74 %
22.01.2018 01:26 1,7 C 1,1 C 0,6 C 95 % 15 lf 1007,7 hPa 0,0 l/m 0 min 2 min 0 W/m 31,5 km/h (5 Bft) 93,62 %
22.01.2018 01:28 1,7 C 1,1 C 0,6 C 95 % 15 lf 1007,7 hPa 0,0 l/m 0 min 2 min 0 W/m 40,6 km/h (6 Bft) 93,62 %
22.01.2018 01:30 1,7 C 1,1 C 0,6 C 95 % 15 lf 1007,6 hPa 0,0 l/m 0 min 2 min 0 W/m 29,3 km/h (5 Bft) 95,74 %
22.01.2018 01:32 1,7 C 1,1 C 0,6 C 96 % 15 lf 1007,6 hPa 0,0 l/m 0 min 2 min 0 W/m 27,0 km/h (4 Bft) 97,83 %
22.01.2018 01:34 1,7 C 1,1 C 0,6 C 96 % 15 lf 1007,5 hPa 0,0 l/m 0 min 2 min 0 W/m 24,8 km/h (4 Bft) 97,87 %
22.01.2018 01:36 1,7 C 1,1 C 0,6 C 95 % 15 lf 1007,5 hPa 0,0 l/m 0 min 2 min 0 W/m 33,8 km/h (5 Bft) 97,87 %
22.01.2018 01:38 1,7 C 1,1 C 0,6 C 95 % 15 lf 1007,5 hPa 0,0 l/m 0 min 2 min 0 W/m 27,0 km/h (4 Bft) 93,62 %
22.01.2018 01:40 1,7 C 1,1 C 0,6 C 96 % 15 lf 1007,4 hPa 0,0 l/m 0 min 2 min 0 W/m 27,0 km/h (4 Bft) 97,87 %
22.01.2018 01:42 1,7 C 1,1 C 0,6 C 96 % 15 lf 1007,2 hPa 0,0 l/m 0 min 2 min 0 W/m 45,1 km/h (6 Bft) 95,74 %
22.01.2018 01:44 1,7 C 1,1 C 0,6 C 96 % 15 lf 1007,2 hPa 0,0 l/m 0 min 2 min 0 W/m 29,3 km/h (5 Bft) 100,00 %
22.01.2018 01:46 1,7 C 1,1 C 0,6 C 96 % 15 lf 1007,1 hPa 0,0 l/m 0 min 2 min 0 W/m 36,0 km/h (5 Bft) 97,87 %
22.01.2018 01:48 1,7 C 1,1 C 0,6 C 96 % 15 lf 1007,1 hPa 0,2 l/m 0 min 2 min 0 W/m 27,0 km/h (4 Bft) 95,74 %
22.01.2018 01:50 1,7 C 1,1 C 0,6 C 96 % 15 lf 1007,1 hPa 0,0 l/m 0 min 2 min 0 W/m 24,8 km/h (4 Bft) 100,00 %
22.01.2018 01:52 1,7 C 1,1 C 0,6 C 96 % 15 lf 1007,1 hPa 0,0 l/m 0 min 2 min 0 W/m 24,8 km/h (4 Bft) 97,87 %
22.01.2018 01:54 1,7 C 1,1 C 0,6 C 96 % 15 lf 1007,0 hPa 0,0 l/m 0 min 2 min 0 W/m 29,3 km/h (5 Bft) 95,74 %
22.01.2018 01:56 1,7 C 1,1 C 0,6 C 96 % 15 lf 1007,0 hPa 0,0 l/m 0 min 2 min 0 W/m 31,5 km/h (5 Bft) 95,65 %
22.01.2018 01:58 1,7 C 1,1 C 0,6 C 96 % 15 lf 1006,9 hPa 0,0 l/m 0 min 2 min 0 W/m 33,8 km/h (5 Bft) 97,87 %
22.01.2018 02:00 1,7 C 1,1 C 0,6 C 96 % 15 lf 1007,0 hPa 0,0 l/m 0 min 2 min 0 W/m 22,5 km/h (4 Bft) 97,87 %
22.01.2018 02:02 1,7 C 1,1 C 0,6 C 96 % 15 lf 1006,9 hPa 0,0 l/m 0 min 2 min 0 W/m 24,8 km/h (4 Bft) 95,74 %
22.01.2018 02:04 1,7 C 1,1 C 0,6 C 96 % 15 lf 1006,9 hPa 0,0 l/m 0 min 2 min 0 W/m 29,3 km/h (5 Bft) 100,00 %
22.01.2018 02:06 1,7 C 1,1 C 0,6 C 96 % 15 lf 1006,9 hPa 0,0 l/m 0 min 2 min 0 W/m 27,0 km/h (4 Bft) 95,74 %
22.01.2018 02:08 1,7 C 1,1 C 0,6 C 96 % 15 lf 1006,8 hPa 0,0 l/m 0 min 2 min 0 W/m 31,5 km/h (5 Bft) 95,65 %
22.01.2018 02:10 1,7 C 1,1 C 0,6 C 96 % 15 lf 1006,8 hPa 0,0 l/m 0 min 2 min 0 W/m 31,5 km/h (5 Bft) 97,87 %
22.01.2018 02:12 1,7 C 1,1 C 0,6 C 96 % 15 lf 1006,7 hPa 0,0 l/m 0 min 2 min 0 W/m 27,0 km/h (4 Bft) 97,87 %
22.01.2018 02:14 1,7 C 1,7 C 0,6 C 96 % 15 lf 1006,7 hPa 0,0 l/m 0 min 2 min 0 W/m 31,5 km/h (5 Bft) 97,87 %
22.01.2018 02:16 1,7 C 1,7 C 0,6 C 96 % 15 lf 1006,7 hPa 0,0 l/m 0 min 2 min 0 W/m 22,5 km/h (4 Bft) 95,74 %
22.01.2018 02:18 1,7 C 1,7 C 0,6 C 96 % 15 lf 1006,7 hPa 0,0 l/m 0 min 2 min 0 W/m 22,5 km/h (4 Bft) 97,87 %
22.01.2018 02:20 1,7 C 1,7 C 0,6 C 96 % 15 lf 1006,7 hPa 0,0 l/m 0 min 2 min 0 W/m 27,0 km/h (4 Bft) 95,65 %
22.01.2018 02:22 1,7 C 1,7 C 0,6 C 96 % 15 lf 1006,7 hPa 0,2 l/m 0 min 2 min 0 W/m 31,5 km/h (5 Bft) 100,00 %
22.01.2018 02:24 1,7 C 1,7 C 0,6 C 96 % 15 lf 1006,7 hPa 0,0 l/m 0 min 2 min 0 W/m 31,5 km/h (5 Bft) 97,87 %
22.01.2018 02:26 1,8 C 1,7 C 0,6 C 96 % 15 lf 1006,5 hPa 0,0 l/m 0 min 2 min 0 W/m 29,3 km/h (5 Bft) 97,87 %
22.01.2018 02:28 1,8 C 1,7 C 0,6 C 97 % 15 lf 1006,5 hPa 0,0 l/m 0 min 2 min 0 W/m 29,3 km/h (5 Bft) 100,00 %
22.01.2018 02:30 1,8 C 1,7 C 0,6 C 97 % 15 lf 1006,4 hPa 0,0 l/m 0 min 2 min 0 W/m 40,6 km/h (6 Bft) 100,00 %
22.01.2018 02:32 1,8 C 1,7 C 0,6 C 97 % 15 lf 1006,4 hPa 0,0 l/m 0 min 2 min 0 W/m 31,5 km/h (5 Bft) 100,00 %
22.01.2018 02:34 1,8 C 1,7 C 0,6 C 97 % 15 lf 1006,4 hPa 0,0 l/m 0 min 2 min 0 W/m 31,5 km/h (5 Bft) 100,00 %
22.01.2018 02:36 1,8 C 1,7 C 0,6 C 97 % 15 lf 1006,5 hPa 0,0 l/m 0 min 2 min 0 W/m 20,3 km/h (4 Bft) 100,00 %
22.01.2018 02:38 1,8 C 1,7 C 0,6 C 97 % 15 lf 1006,5 hPa 0,0 l/m 0 min 2 min 0 W/m 29,3 km/h (5 Bft) 97,87 %
22.01.2018 02:40 1,8 C 1,7 C 0,6 C 97 % 15 lf 1006,7 hPa 0,0 l/m 0 min 2 min 0 W/m 31,5 km/h (5 Bft) 100,00 %
22.01.2018 02:42 1,8 C 1,7 C 0,6 C 97 % 15 lf 1006,7 hPa 0,0 l/m 0 min 2 min 0 W/m 24,8 km/h (4 Bft) 100,00 %
22.01.2018 02:44 1,8 C 1,7 C 0,6 C 97 % 15 lf 1006,6 hPa 0,0 l/m 0 min 2 min 0 W/m 27,0 km/h (4 Bft) 100,00 %
22.01.2018 02:46 1,8 C 1,7 C 0,6 C 97 % 15 lf 1006,5 hPa 0,0 l/m 0 min 2 min 0 W/m 22,5 km/h (4 Bft) 95,74 %
22.01.2018 02:48 1,8 C 1,7 C 0,6 C 97 % 15 lf 1006,5 hPa 0,0 l/m 0 min 2 min 0 W/m 24,8 km/h (4 Bft) 97,87 %
22.01.2018 02:50 1,8 C 1,7 C 0,6 C 97 % 15 lf 1006,6 hPa 0,0 l/m 0 min 2 min 0 W/m 20,3 km/h (4 Bft) 100,00 %
22.01.2018 02:52 1,8 C 1,7 C 0,6 C 97 % 15 lf 1006,6 hPa 0,0 l/m 0 min 0 min 0 W/m 20,3 km/h (4 Bft) 100,00 %
22.01.2018 02:54 1,8 C 1,7 C 0,6 C 97 % 15 lf 1006,5 hPa 0,0 l/m 0 min 2 min 0 W/m 18,0 km/h (3 Bft) 95,65 %
22.01.2018 02:56 1,8 C 1,7 C 0,6 C 97 % 15 lf 1006,5 hPa 0,0 l/m 0 min 2 min 0 W/m 31,5 km/h (5 Bft) 95,74 %
22.01.2018 02:58 1,9 C 1,7 C 0,6 C 97 % 15 lf 1006,4 hPa 0,0 l/m 0 min 2 min 0 W/m 29,3 km/h (5 Bft) 97,87 %
22.01.2018 03:00 1,9 C 1,7 C 0,6 C 97 % 15 lf 1006,4 hPa 0,0 l/m 0 min 2 min 0 W/m 33,8 km/h (5 Bft) 97,87 %
22.01.2018 03:02 1,9 C 1,7 C 0,6 C 97 % 15 lf 1006,3 hPa 0,0 l/m 0 min 2 min 0 W/m 27,0 km/h (4 Bft) 95,74 %
22.01.2018 03:04 1,9 C 1,7 C 1,1 C 97 % 15 lf 1006,3 hPa 0,0 l/m 0 min 2 min 0 W/m 33,8 km/h (5 Bft) 95,74 %
22.01.2018 03:06 1,9 C 1,7 C 1,1 C 97 % 15 lf 1006,2 hPa 0,0 l/m 0 min 2 min 0 W/m 36,0 km/h (5 Bft) 97,83 %
22.01.2018 03:08 1,9 C 1,7 C 1,1 C 97 % 15 lf 1006,2 hPa 0,0 l/m 0 min 2 min 0 W/m 27,0 km/h (4 Bft) 91,49 %
22.01.2018 03:10 1,9 C 1,7 C 1,1 C 97 % 15 lf 1006,1 hPa 0,0 l/m 0 min 2 min 0 W/m 27,0 km/h (4 Bft) 97,87 %
22.01.2018 03:12 1,9 C 1,7 C 1,1 C 97 % 15 lf 1006,1 hPa 0,2 l/m 0 min 2 min 0 W/m 31,5 km/h (5 Bft) 97,87 %
22.01.2018 03:14 1,9 C 1,7 C 1,1 C 97 % 15 lf 1006,1 hPa 0,0 l/m 0 min 2 min 0 W/m 20,3 km/h (4 Bft) 95,74 %
22.01.2018 03:16 1,9 C 1,7 C 1,1 C 97 % 15 lf 1006,1 hPa 0,0 l/m 0 min 2 min 0 W/m 29,3 km/h (5 Bft) 100,00 %
22.01.2018 03:18 1,9 C 1,7 C 1,1 C 97 % 15 lf 1006,1 hPa 0,0 l/m 0 min 2 min 0 W/m 27,0 km/h (4 Bft) 95,65 %
22.01.2018 03:20 1,9 C 1,7 C 1,1 C 97 % 15 lf 1006,0 hPa 0,0 l/m 0 min 2 min 0 W/m 24,8 km/h (4 Bft) 91,49 %
22.01.2018 03:22 1,9 C 1,7 C 1,1 C 97 % 15 lf 1005,9 hPa 0,0 l/m 0 min 2 min 0 W/m 33,8 km/h (5 Bft) 97,87 %
22.01.2018 03:24 1,9 C 1,7 C 1,1 C 97 % 15 lf 1005,9 hPa 0,0 l/m 0 min 2 min 0 W/m 31,5 km/h (5 Bft) 97,87 %
22.01.2018 03:26 1,9 C 1,7 C 1,1 C 97 % 15 lf 1005,9 hPa 0,0 l/m 0 min 2 min 0 W/m 27,0 km/h (4 Bft) 95,74 %
22.01.2018 03:28 1,9 C 1,7 C 1,1 C 97 % 15 lf 1005,7 hPa 0,0 l/m 0 min 2 min 0 W/m 27,0 km/h (4 Bft) 97,87 %
22.01.2018 03:30 1,9 C 1,7 C 1,1 C 97 % 15 lf 1005,7 hPa 0,0 l/m 0 min 2 min 0 W/m 33,8 km/h (5 Bft) 93,48 %
22.01.2018 03:32 1,9 C 1,7 C 1,1 C 97 % 15 lf 1005,8 hPa 0,0 l/m 0 min 2 min 0 W/m 24,8 km/h (4 Bft) 95,74 %
22.01.2018 03:34 1,9 C 1,7 C 1,1 C 97 % 15 lf 1005,8 hPa 0,2 l/m 0 min 2 min 0 W/m 31,5 km/h (5 Bft) 91,49 %
22.01.2018 03:36 1,9 C 1,7 C 1,1 C 97 % 15 lf 1005,7 hPa 0,0 l/m 0 min 2 min 0 W/m 33,8 km/h (5 Bft) 93,62 %
22.01.2018 03:38 1,9 C 1,7 C 1,1 C 97 % 15 lf 1005,7 hPa 0,0 l/m 0 min 2 min 0 W/m 22,5 km/h (4 Bft) 93,62 %
22.01.2018 03:40 1,9 C 1,7 C 1,1 C 97 % 15 lf 1005,6 hPa 0,0 l/m 0 min 2 min 0 W/m 29,3 km/h (5 Bft) 91,30 %
22.01.2018 03:42 1,9 C 1,7 C 1,1 C 97 % 15 lf 1005,6 hPa 0,0 l/m 0 min 2 min 0 W/m 33,8 km/h (5 Bft) 93,62 %
22.01.2018 03:44 1,9 C 1,7 C 1,1 C 97 % 15 lf 1005,6 hPa 0,0 l/m 0 min 2 min 0 W/m 22,5 km/h (4 Bft) 91,49 %
22.01.2018 03:46 1,9 C 1,7 C 1,1 C 97 % 15 lf 1005,6 hPa 0,0 l/m 0 min 2 min 0 W/m 36,0 km/h (5 Bft) 89,36 %
22.01.2018 03:48 2,0 C 1,7 C 1,1 C 97 % 15 lf 1005,7 hPa 0,0 l/m 0 min 2 min 0 W/m 31,5 km/h (5 Bft) 93,62 %
22.01.2018 03:50 2,0 C 1,7 C 1,1 C 97 % 15 lf 1005,6 hPa 0,0 l/m 0 min 2 min 0 W/m 29,3 km/h (5 Bft) 91,49 %
22.01.2018 03:52 2,0 C 1,7 C 1,1 C 97 % 15 lf 1005,7 hPa 0,0 l/m 0 min 2 min 0 W/m 27,0 km/h (4 Bft) 91,30 %
22.01.2018 03:54 2,0 C 1,7 C 1,1 C 97 % 15 lf 1005,7 hPa 0,0 l/m 0 min 2 min 0 W/m 15,8 km/h (3 Bft) 87,23 %
22.01.2018 03:56 2,0 C 1,7 C 1,1 C 97 % 15 lf 1005,6 hPa 0,0 l/m 0 min 0 min 0 W/m 18,0 km/h (3 Bft) 89,36 %
22.01.2018 03:58 2,0 C 1,7 C 1,1 C 97 % 15 lf 1005,6 hPa 0,0 l/m 0 min 0 min 0 W/m 20,3 km/h (4 Bft) 89,36 %
22.01.2018 04:00 2,0 C 1,7 C 1,1 C 97 % 15 lf 1005,6 hPa 0,0 l/m 0 min 0 min 0 W/m 24,8 km/h (4 Bft) 93,62 %
22.01.2018 04:05 2,0 C 1,7 C 1,1 C 97 % 15 lf 1005,4 hPa 0,0 l/m 0 min 5 min 0 W/m 29,3 km/h (5 Bft) 93,33 %
22.01.2018 04:06 2,0 C 1,7 C 1,1 C 97 % 15 lf 1005,4 hPa 0,0 l/m 0 min 1 min 0 W/m 31,5 km/h (5 Bft) 86,96 %
22.01.2018 04:08 2,0 C 1,7 C 1,1 C 97 % 15 lf 1005,2 hPa 0,0 l/m 0 min 2 min 0 W/m 29,3 km/h (5 Bft) 93,62 %
22.01.2018 04:10 2,0 C 1,7 C 1,1 C 97 % 15 lf 1005,4 hPa 0,0 l/m 0 min 2 min 0 W/m 31,5 km/h (5 Bft) 93,62 %
22.01.2018 04:12 2,1 C 1,7 C 1,1 C 97 % 15 lf 1005,5 hPa 0,0 l/m 0 min 2 min 0 W/m 18,0 km/h (3 Bft) 93,62 %
22.01.2018 04:14 2,0 C 1,7 C 1,1 C 97 % 15 lf 1005,5 hPa 0,0 l/m 0 min 2 min 0 W/m 20,3 km/h (4 Bft) 91,49 %
22.01.2018 04:16 2,1 C 1,7 C 1,1 C 97 % 15 lf 1005,5 hPa 0,0 l/m 0 min 0 min 0 W/m 18,0 km/h (3 Bft) 93,62 %
22.01.2018 04:18 2,1 C 1,7 C 1,1 C 98 % 15 lf 1005,6 hPa 0,0 l/m 0 min 2 min 0 W/m 22,5 km/h (4 Bft) 93,62 %
22.01.2018 04:20 2,1 C 1,7 C 1,1 C 98 % 15 lf 1005,5 hPa 0,0 l/m 0 min 2 min 0 W/m 22,5 km/h (4 Bft) 93,62 %
22.01.2018 04:22 2,1 C 1,7 C 1,1 C 98 % 15 lf 1005,6 hPa 0,0 l/m 0 min 2 min 0 W/m 18,0 km/h (3 Bft) 97,87 %
22.01.2018 04:24 2,1 C 1,7 C 1,1 C 98 % 15 lf 1005,5 hPa 0,0 l/m 0 min 2 min 0 W/m 18,0 km/h (3 Bft) 100,00 %
22.01.2018 04:26 2,1 C 2,2 C 1,1 C 98 % 15 lf 1005,6 hPa 0,0 l/m 0 min 2 min 0 W/m 22,5 km/h (4 Bft) 97,83 %
22.01.2018 04:28 2,1 C 1,7 C 1,1 C 98 % 15 lf 1005,6 hPa 0,0 l/m 0 min 2 min 0 W/m 6,8 km/h (2 Bft) 97,87 %
22.01.2018 04:30 2,1 C 2,2 C 1,1 C 98 % 15 lf 1005,7 hPa 0,2 l/m 0 min 2 min 0 W/m 18,0 km/h (3 Bft) 100,00 %
22.01.2018 04:32 2,1 C 2,2 C 1,1 C 98 % 15 lf 1005,7 hPa 0,0 l/m 0 min 2 min 0 W/m 9,0 km/h (2 Bft) 100,00 %
22.01.2018 04:34 2,1 C 2,2 C 1,1 C 98 % 15 lf 1005,6 hPa 0,0 l/m 0 min 2 min 0 W/m 22,5 km/h (4 Bft) 100,00 %
22.01.2018 04:36 2,1 C 2,2 C 1,1 C 98 % 15 lf 1005,4 hPa 0,0 l/m 0 min 2 min 0 W/m 22,5 km/h (4 Bft) 100,00 %
22.01.2018 04:38 2,1 C 2,2 C 1,1 C 98 % 15 lf 1005,5 hPa 0,0 l/m 0 min 2 min 0 W/m 15,8 km/h (3 Bft) 97,87 %
22.01.2018 04:40 2,1 C 2,2 C 1,1 C 98 % 15 lf 1005,6 hPa 0,0 l/m 0 min 0 min 0 W/m 13,5 km/h (3 Bft) 95,65 %
22.01.2018 04:42 2,1 C 2,2 C 1,1 C 98 % 15 lf 1005,6 hPa 0,0 l/m 0 min 0 min 0 W/m 6,8 km/h (2 Bft) 97,87 %
22.01.2018 04:44 2,1 C 2,2 C 1,1 C 98 % 15 lf 1005,5 hPa 0,0 l/m 0 min 2 min 0 W/m 13,5 km/h (3 Bft) 95,74 %
22.01.2018 04:46 2,1 C 2,2 C 1,1 C 98 % 15 lf 1005,4 hPa 0,0 l/m 0 min 0 min 0 W/m 11,3 km/h (2 Bft) 95,74 %
22.01.2018 04:48 2,1 C 2,2 C 1,1 C 98 % 15 lf 1005,4 hPa 0,0 l/m 0 min 0 min 0 W/m 15,8 km/h (3 Bft) 100,00 %
22.01.2018 04:50 2,2 C 2,2 C 1,1 C 98 % 15 lf 1005,4 hPa 0,0 l/m 0 min 2 min 0 W/m 20,3 km/h (4 Bft) 100,00 %
22.01.2018 04:52 2,2 C 2,2 C 1,1 C 98 % 15 lf 1005,3 hPa 0,0 l/m 0 min 2 min 0 W/m 22,5 km/h (4 Bft) 97,87 %
22.01.2018 04:54 2,2 C 2,2 C 1,1 C 98 % 15 lf 1005,3 hPa 0,2 l/m 0 min 2 min 0 W/m 24,8 km/h (4 Bft) 100,00 %
22.01.2018 04:56 2,2 C 2,2 C 1,1 C 98 % 15 lf 1005,3 hPa 0,0 l/m 0 min 2 min 0 W/m 15,8 km/h (3 Bft) 100,00 %
22.01.2018 04:58 2,2 C 2,2 C 1,1 C 98 % 15 lf 1005,3 hPa 0,0 l/m 0 min 2 min 0 W/m 18,0 km/h (3 Bft) 97,87 %
22.01.2018 05:00 2,2 C 2,2 C 1,1 C 98 % 15 lf 1005,2 hPa 0,0 l/m 0 min 2 min 0 W/m 20,3 km/h (4 Bft) 100,00 %
22.01.2018 05:02 2,2 C 2,2 C 1,1 C 98 % 15 lf 1005,2 hPa 0,0 l/m 0 min 2 min 0 W/m 20,3 km/h (4 Bft) 100,00 %
22.01.2018 05:04 2,2 C 2,2 C 1,1 C 98 % 15 lf 1005,1 hPa 0,0 l/m 0 min 2 min 0 W/m 22,5 km/h (4 Bft) 100,00 %
22.01.2018 05:06 2,2 C 2,2 C 1,1 C 98 % 15 lf 1005,2 hPa 0,0 l/m 0 min 2 min 0 W/m 18,0 km/h (3 Bft) 100,00 %
22.01.2018 05:08 2,2 C 2,2 C 1,1 C 98 % 15 lf 1005,2 hPa 0,0 l/m 0 min 2 min 0 W/m 22,5 km/h (4 Bft) 100,00 %
22.01.2018 05:10 2,2 C 2,2 C 1,1 C 98 % 15 lf 1005,1 hPa 0,0 l/m 0 min 2 min 0 W/m 22,5 km/h (4 Bft) 100,00 %
22.01.2018 05:12 2,2 C 2,2 C 1,1 C 98 % 15 lf 1004,9 hPa 0,0 l/m 0 min 2 min 0 W/m 29,3 km/h (5 Bft) 97,87 %
22.01.2018 05:14 2,2 C 2,2 C 1,1 C 98 % 15 lf 1004,9 hPa 0,0 l/m 0 min 2 min 0 W/m 31,5 km/h (5 Bft) 97,83 %
22.01.2018 05:16 2,2 C 2,2 C 1,1 C 98 % 15 lf 1004,9 hPa 0,0 l/m 0 min 2 min 0 W/m 22,5 km/h (4 Bft) 100,00 %
22.01.2018 05:18 2,2 C 2,2 C 1,1 C 98 % 15 lf 1005,0 hPa 0,0 l/m 0 min 2 min 0 W/m 15,8 km/h (3 Bft) 95,74 %
22.01.2018 05:20 2,2 C 2,2 C 1,1 C 98 % 15 lf 1005,0 hPa 0,0 l/m 0 min 2 min 0 W/m 22,5 km/h (4 Bft) 100,00 %
22.01.2018 05:22 2,2 C 2,2 C 1,1 C 98 % 15 lf 1005,0 hPa 0,0 l/m 0 min 2 min 0 W/m 18,0 km/h (3 Bft) 100,00 %
22.01.2018 05:24 2,2 C 2,2 C 1,1 C 98 % 15 lf 1004,9 hPa 0,0 l/m 0 min 2 min 0 W/m 20,3 km/h (4 Bft) 97,87 %
22.01.2018 05:26 2,2 C 2,2 C 1,1 C 98 % 15 lf 1005,0 hPa 0,0 l/m 0 min 2 min 0 W/m 13,5 km/h (3 Bft) 100,00 %
22.01.2018 05:28 2,2 C 2,2 C 1,1 C 98 % 15 lf 1005,0 hPa 0,0 l/m 0 min 2 min 0 W/m 13,5 km/h (3 Bft) 100,00 %
22.01.2018 05:30 2,2 C 2,2 C 1,1 C 98 % 15 lf 1005,1 hPa 0,0 l/m 0 min 2 min 0 W/m 18,0 km/h (3 Bft) 100,00 %
22.01.2018 05:32 2,3 C 2,2 C 1,1 C 98 % 15 lf 1005,0 hPa 0,0 l/m 0 min 2 min 0 W/m 18,0 km/h (3 Bft) 97,87 %
22.01.2018 05:34 2,3 C 2,2 C 1,1 C 98 % 15 lf 1004,8 hPa 0,0 l/m 0 min 2 min 0 W/m 13,5 km/h (3 Bft) 100,00 %
22.01.2018 05:35 2,3 C 2,2 C 1,1 C 98 % 15 lf 1004,9 hPa 0,2 l/m 0 min 1 min 0 W/m 18,0 km/h (3 Bft) 100,00 %
22.01.2018 05:42 2,3 C 2,2 C 1,1 C 98 % 15 lf 1004,9 hPa 0,0 l/m 0 min 5 min 0 W/m 20,3 km/h (4 Bft) 100,00 %
22.01.2018 05:44 2,3 C 2,2 C 1,1 C 98 % 15 lf 1004,9 hPa 0,0 l/m 0 min 2 min 0 W/m 15,8 km/h (3 Bft) 97,14 %
22.01.2018 05:46 2,3 C 2,2 C 1,1 C 98 % 15 lf 1004,8 hPa 0,0 l/m 0 min 2 min 0 W/m 15,8 km/h (3 Bft) 97,92 %
22.01.2018 05:48 2,3 C 2,2 C 1,1 C 98 % 15 lf 1004,8 hPa 0,0 l/m 0 min 2 min 0 W/m 18,0 km/h (3 Bft) 97,87 %
22.01.2018 05:50 2,3 C 2,2 C 1,1 C 98 % 15 lf 1004,7 hPa 0,0 l/m 0 min 0 min 0 W/m 18,0 km/h (3 Bft) 94,83 %
22.01.2018 05:52 2,3 C 2,2 C 1,1 C 98 % 15 lf 1004,7 hPa 0,0 l/m 0 min 2 min 0 W/m 18,0 km/h (3 Bft) 94,29 %
22.01.2018 05:54 2,3 C 2,2 C 1,1 C 98 % 15 lf 1004,8 hPa 0,0 l/m 0 min 2 min 0 W/m 18,0 km/h (3 Bft) 97,87 %
22.01.2018 05:56 2,3 C 2,2 C 1,1 C 98 % 15 lf 1004,7 hPa 0,2 l/m 0 min 2 min 0 W/m 18,0 km/h (3 Bft) 98,31 %
22.01.2018 05:58 2,3 C 2,2 C 1,1 C 98 % 15 lf 1004,8 hPa 0,0 l/m 0 min 2 min 0 W/m 20,3 km/h (4 Bft) 94,29 %
22.01.2018 06:00 2,3 C 2,2 C 1,1 C 98 % 15 lf 1004,7 hPa 0,0 l/m 0 min 0 min 0 W/m 18,0 km/h (3 Bft) 95,74 %
22.01.2018 06:02 2,3 C 2,2 C 1,1 C 98 % 15 lf 1004,6 hPa 0,0 l/m 0 min 2 min 0 W/m 15,8 km/h (3 Bft) 97,87 %
22.01.2018 06:04 2,3 C 2,2 C 1,1 C 98 % 15 lf 1004,6 hPa 0,0 l/m 0 min 2 min 0 W/m 15,8 km/h (3 Bft) 95,74 %
22.01.2018 06:06 2,3 C 2,2 C 1,1 C 98 % 15 lf 1004,5 hPa 0,0 l/m 0 min 2 min 0 W/m 24,8 km/h (4 Bft) 93,75 %
22.01.2018 06:08 2,3 C 2,2 C 1,7 C 98 % 15 lf 1004,5 hPa 0,0 l/m 0 min 2 min 0 W/m 22,5 km/h (4 Bft) 93,62 %
22.01.2018 06:10 2,4 C 2,2 C 1,7 C 98 % 15 lf 1004,5 hPa 0,0 l/m 0 min 2 min 0 W/m 24,8 km/h (4 Bft) 97,87 %
22.01.2018 06:12 2,4 C 2,2 C 1,7 C 98 % 15 lf 1004,4 hPa 0,0 l/m 0 min 2 min 0 W/m 20,3 km/h (4 Bft) 93,62 %
22.01.2018 06:14 2,4 C 2,2 C 1,7 C 98 % 15 lf 1004,6 hPa 0,0 l/m 0 min 2 min 0 W/m 20,3 km/h (4 Bft) 100,00 %
22.01.2018 06:16 2,4 C 2,2 C 1,7 C 98 % 15 lf 1004,6 hPa 0,0 l/m 0 min 2 min 0 W/m 15,8 km/h (3 Bft) 97,87 %
22.01.2018 06:18 2,4 C 2,2 C 1,7 C 98 % 15 lf 1004,3 hPa 0,0 l/m 0 min 2 min 0 W/m 18,0 km/h (3 Bft) 100,00 %
22.01.2018 06:20 2,4 C 2,2 C 1,7 C 98 % 15 lf 1004,4 hPa 0,2 l/m 0 min 2 min 0 W/m 20,3 km/h (4 Bft) 96,61 %
22.01.2018 06:22 2,4 C 2,2 C 1,7 C 98 % 15 lf 1004,3 hPa 0,0 l/m 0 min 2 min 0 W/m 27,0 km/h (4 Bft) 100,00 %
22.01.2018 06:24 2,5 C 2,2 C 1,7 C 98 % 15 lf 1004,3 hPa 0,0 l/m 0 min 2 min 0 W/m 22,5 km/h (4 Bft) 95,74 %
22.01.2018 06:26 2,5 C 2,2 C 1,7 C 98 % 15 lf 1004,2 hPa 0,0 l/m 0 min 2 min 0 W/m 13,5 km/h (3 Bft) 95,65 %
22.01.2018 06:28 2,5 C 2,2 C 1,7 C 98 % 15 lf 1004,2 hPa 0,0 l/m 0 min 2 min 0 W/m 22,5 km/h (4 Bft) 93,62 %
22.01.2018 06:30 2,5 C 2,8 C 1,7 C 98 % 15 lf 1004,3 hPa 0,0 l/m 0 min 2 min 0 W/m 24,8 km/h (4 Bft) 95,74 %
22.01.2018 06:32 2,6 C 2,8 C 1,7 C 98 % 15 lf 1004,4 hPa 0,0 l/m 0 min 2 min 0 W/m 15,8 km/h (3 Bft) 93,62 %
22.01.2018 06:34 2,6 C 2,8 C 1,7 C 98 % 15 lf 1004,4 hPa 0,0 l/m 0 min 2 min 0 W/m 18,0 km/h (3 Bft) 95,74 %
22.01.2018 06:36 2,6 C 2,8 C 1,7 C 98 % 15 lf 1004,4 hPa 0,0 l/m 0 min 2 min 0 W/m 15,8 km/h (3 Bft) 91,30 %
22.01.2018 06:38 2,7 C 2,8 C 1,7 C 98 % 15 lf 1004,5 hPa 0,2 l/m 0 min 2 min 0 W/m 18,0 km/h (3 Bft) 93,62 %
22.01.2018 06:40 2,7 C 2,8 C 1,7 C 98 % 15 lf 1004,5 hPa 0,0 l/m 0 min 2 min 0 W/m 15,8 km/h (3 Bft) 95,74 %
22.01.2018 06:42 2,7 C 2,8 C 1,7 C 98 % 15 lf 1004,5 hPa 0,0 l/m 0 min 0 min 0 W/m 15,8 km/h (3 Bft) 95,74 %
22.01.2018 06:44 2,7 C 2,8 C 1,7 C 98 % 15 lf 1004,5 hPa 0,0 l/m 0 min 0 min 0 W/m 22,5 km/h (4 Bft) 97,87 %
22.01.2018 06:46 2,7 C 2,8 C 1,7 C 98 % 15 lf 1004,5 hPa 0,0 l/m 0 min 0 min 0 W/m 15,8 km/h (3 Bft) 93,62 %
22.01.2018 06:48 2,7 C 2,8 C 1,7 C 98 % 15 lf 1004,5 hPa 0,0 l/m 0 min 2 min 0 W/m 13,5 km/h (3 Bft) 91,30 %
22.01.2018 06:50 2,8 C 2,8 C 1,7 C 98 % 15 lf 1004,4 hPa 0,0 l/m 0 min 0 min 0 W/m 13,5 km/h (3 Bft) 93,22 %
22.01.2018 06:52 2,8 C 2,8 C 2,2 C 98 % 15 lf 1004,4 hPa 0,0 l/m 0 min 0 min 0 W/m 13,5 km/h (3 Bft) 94,29 %
22.01.2018 06:54 2,8 C 2,8 C 2,2 C 98 % 15 lf 1004,4 hPa 0,0 l/m 0 min 0 min 0 W/m 15,8 km/h (3 Bft) 91,49 %
22.01.2018 06:56 2,9 C 2,8 C 2,2 C 98 % 15 lf 1004,4 hPa 0,0 l/m 0 min 0 min 0 W/m 18,0 km/h (3 Bft) 91,49 %
22.01.2018 06:58 2,9 C 2,8 C 2,2 C 98 % 15 lf 1004,6 hPa 0,0 l/m 0 min 0 min 0 W/m 18,0 km/h (3 Bft) 91,49 %
22.01.2018 07:00 2,9 C 2,8 C 2,2 C 98 % 15 lf 1004,6 hPa 0,0 l/m 0 min 2 min 0 W/m 13,5 km/h (3 Bft) 91,30 %
22.01.2018 07:02 2,9 C 2,8 C 2,2 C 98 % 15 lf 1004,6 hPa 0,0 l/m 0 min 2 min 0 W/m 11,3 km/h (2 Bft) 93,62 %
22.01.2018 07:04 2,9 C 2,8 C 2,2 C 98 % 15 lf 1004,7 hPa 0,0 l/m 0 min 2 min 0 W/m 9,0 km/h (2 Bft) 93,62 %
22.01.2018 07:06 3,0 C 2,8 C 1,7 C 98 % 15 lf 1004,6 hPa 0,0 l/m 0 min 2 min 0 W/m 11,3 km/h (2 Bft) 93,62 %
22.01.2018 07:08 2,9 C 2,8 C 1,7 C 98 % 15 lf 1004,5 hPa 0,2 l/m 0 min 2 min 0 W/m 11,3 km/h (2 Bft) 89,36 %
22.01.2018 07:10 2,9 C 2,8 C 1,7 C 98 % 15 lf 1004,5 hPa 0,0 l/m 0 min 2 min 0 W/m 11,3 km/h (2 Bft) 91,49 %
22.01.2018 07:12 2,9 C 2,8 C 1,7 C 98 % 15 lf 1004,6 hPa 0,0 l/m 0 min 2 min 0 W/m 11,3 km/h (2 Bft) 97,83 %
22.01.2018 07:14 2,9 C 2,8 C 1,7 C 98 % 15 lf 1004,6 hPa 0,0 l/m 0 min 2 min 0 W/m 13,5 km/h (3 Bft) 95,74 %
22.01.2018 07:16 2,9 C 2,8 C 1,7 C 98 % 15 lf 1004,7 hPa 0,0 l/m 0 min 2 min 0 W/m 11,3 km/h (2 Bft) 97,87 %
22.01.2018 07:18 2,9 C 2,8 C 1,7 C 98 % 15 lf 1004,6 hPa 0,0 l/m 0 min 2 min 0 W/m 9,0 km/h (2 Bft) 97,87 %
22.01.2018 07:20 2,9 C 2,8 C 1,7 C 98 % 15 lf 1004,7 hPa 0,0 l/m 0 min 2 min 0 W/m 11,3 km/h (2 Bft) 98,28 %
22.01.2018 07:22 2,9 C 2,8 C 1,7 C 98 % 15 lf 1004,7 hPa 0,0 l/m 0 min 2 min 0 W/m 13,5 km/h (3 Bft) 97,22 %
22.01.2018 07:24 2,9 C 2,8 C 1,7 C 98 % 15 lf 1004,6 hPa 0,0 l/m 0 min 2 min 0 W/m 13,5 km/h (3 Bft) 97,83 %
22.01.2018 07:26 2,9 C 2,8 C 1,7 C 98 % 15 lf 1004,7 hPa 0,0 l/m 0 min 2 min 0 W/m 9,0 km/h (2 Bft) 95,74 %
22.01.2018 07:28 2,9 C 2,8 C 1,7 C 98 % 15 lf 1004,7 hPa 0,2 l/m 0 min 2 min 0 W/m 9,0 km/h (2 Bft) 95,74 %
22.01.2018 07:30 2,9 C 2,8 C 2,2 C 98 % 15 lf 1004,8 hPa 0,0 l/m 0 min 2 min 0 W/m 6,8 km/h (2 Bft) 93,62 %
22.01.2018 07:32 2,9 C 2,8 C 2,2 C 98 % 15 lf 1004,8 hPa 0,0 l/m 0 min 0 min 0 W/m 11,3 km/h (2 Bft) 95,74 %
22.01.2018 07:34 2,9 C 2,8 C 2,2 C 98 % 15 lf 1004,9 hPa 0,0 l/m 0 min 0 min 0 W/m 9,0 km/h (2 Bft) 95,74 %
22.01.2018 07:36 2,9 C 2,8 C 2,2 C 98 % 15 lf 1004,9 hPa 0,0 l/m 0 min 2 min 0 W/m 9,0 km/h (2 Bft) 89,13 %
22.01.2018 07:38 2,9 C 2,8 C 2,2 C 98 % 15 lf 1004,9 hPa 0,0 l/m 0 min 2 min 0 W/m 9,0 km/h (2 Bft) 93,62 %
22.01.2018 07:40 2,9 C 2,8 C 2,2 C 98 % 15 lf 1004,9 hPa 0,0 l/m 0 min 2 min 0 W/m 9,0 km/h (2 Bft) 95,74 %
22.01.2018 07:42 2,9 C 2,8 C 2,2 C 98 % 15 lf 1004,8 hPa 0,0 l/m 0 min 0 min 0 W/m 11,3 km/h (2 Bft) 93,62 %
22.01.2018 07:44 2,9 C 2,8 C 2,2 C 98 % 15 lf 1004,8 hPa 0,0 l/m 0 min 2 min 0 W/m 13,5 km/h (3 Bft) 97,87 %
22.01.2018 07:46 3,0 C 2,8 C 2,2 C 98 % 15 lf 1004,8 hPa 0,0 l/m 0 min 0 min 0 W/m 9,0 km/h (2 Bft) 95,12 %
22.01.2018 07:48 3,0 C 2,8 C 2,2 C 98 % 15 lf 1004,8 hPa 0,0 l/m 0 min 0 min 0 W/m 13,5 km/h (3 Bft) 91,30 %
22.01.2018 07:50 3,0 C 2,8 C 2,2 C 98 % 15 lf 1004,8 hPa 0,2 l/m 0 min 2 min 0 W/m 9,0 km/h (2 Bft) 94,92 %
22.01.2018 07:52 3,0 C 2,8 C 2,2 C 98 % 15 lf 1004,8 hPa 0,0 l/m 0 min 0 min 0 W/m 6,8 km/h (2 Bft) 94,29 %
22.01.2018 07:54 3,0 C 2,8 C 2,2 C 98 % 15 lf 1004,8 hPa 0,0 l/m 0 min 0 min 0 W/m 9,0 km/h (2 Bft) 95,74 %
22.01.2018 07:56 3,0 C 3,3 C 2,2 C 98 % 15 lf 1004,8 hPa 0,0 l/m 0 min 0 min 0 W/m 6,8 km/h (2 Bft) 95,74 %
22.01.2018 07:58 3,1 C 3,3 C 2,2 C 98 % 15 lf 1004,7 hPa 0,0 l/m 0 min 0 min 0 W/m 6,8 km/h (2 Bft) 97,87 %
22.01.2018 08:00 3,1 C 3,3 C 2,2 C 98 % 15 lf 1004,7 hPa 0,0 l/m 0 min 0 min 0 W/m 6,8 km/h (2 Bft) 95,65 %
22.01.2018 08:02 3,1 C 3,3 C 2,2 C 98 % 15 lf 1004,7 hPa 0,0 l/m 0 min 0 min 0 W/m 6,8 km/h (2 Bft) 97,87 %
22.01.2018 08:04 3,1 C 3,3 C 2,2 C 98 % 15 lf 1004,6 hPa 0,0 l/m 0 min 0 min 0 W/m 9,0 km/h (2 Bft) 93,62 %
22.01.2018 08:06 3,1 C 3,3 C 2,2 C 98 % 15 lf 1004,7 hPa 0,0 l/m 0 min 0 min 0 W/m 11,3 km/h (2 Bft) 98,11 %
22.01.2018 08:08 3,2 C 3,3 C 2,2 C 98 % 15 lf 1004,7 hPa 0,0 l/m 0 min 0 min 0 W/m 9,0 km/h (2 Bft) 95,12 %
22.01.2018 08:10 3,2 C 3,3 C 2,2 C 98 % 15 lf 1004,8 hPa 0,0 l/m 0 min 0 min 0 W/m 9,0 km/h (2 Bft) 100,00 %
22.01.2018 08:12 3,2 C 3,3 C 2,2 C 98 % 15 lf 1004,8 hPa 0,0 l/m 0 min 0 min 0 W/m 9,0 km/h (2 Bft) 100,00 %
22.01.2018 08:14 3,2 C 3,3 C 2,2 C 98 % 15 lf 1004,9 hPa 0,0 l/m 0 min 0 min 0 W/m 6,8 km/h (2 Bft) 100,00 %
22.01.2018 08:16 3,2 C 3,3 C 2,8 C 98 % 15 lf 1005,0 hPa 0,0 l/m 0 min 0 min 0 W/m 6,8 km/h (2 Bft) 97,87 %
22.01.2018 08:18 3,3 C 3,3 C 2,8 C 98 % 15 lf 1005,0 hPa 0,0 l/m 0 min 0 min 0 W/m 6,8 km/h (2 Bft) 97,87 %
22.01.2018 08:20 3,3 C 3,3 C 2,8 C 98 % 15 lf 1005,0 hPa 0,0 l/m 0 min 0 min 0 W/m 6,8 km/h (2 Bft) 98,31 %
22.01.2018 08:22 3,3 C 3,3 C 2,8 C 98 % 15 lf 1005,0 hPa 0,0 l/m 0 min 0 min 0 W/m 4,5 km/h (1 Bft) 100,00 %
22.01.2018 08:24 3,3 C 3,9 C 2,8 C 99 % 15 lf 1005,1 hPa 0,0 l/m 0 min 0 min 0 W/m 4,5 km/h (1 Bft) 100,00 %
22.01.2018 08:26 3,3 C 3,9 C 2,8 C 99 % 15 lf 1005,1 hPa 0,0 l/m 0 min 0 min 0 W/m 4,5 km/h (1 Bft) 97,87 %
22.01.2018 08:28 3,3 C 3,9 C 2,8 C 99 % 15 lf 1005,0 hPa 0,0 l/m 0 min 0 min 0 W/m 9,0 km/h (2 Bft) 97,87 %
22.01.2018 08:30 3,3 C 3,9 C 2,8 C 99 % 15 lf 1005,0 hPa 0,0 l/m 0 min 0 min 0 W/m 4,5 km/h (1 Bft) 97,87 %
22.01.2018 08:32 3,4 C 3,9 C 2,8 C 99 % 15 lf 1005,1 hPa 0,0 l/m 0 min 0 min 0 W/m 13,5 km/h (3 Bft) 95,74 %
22.01.2018 08:34 3,4 C 4,4 C 2,8 C 99 % 15 lf 1005,1 hPa 0,0 l/m 0 min 0 min 0 W/m 11,3 km/h (2 Bft) 100,00 %
22.01.2018 08:36 3,4 C 4,4 C 3,3 C 99 % 15 lf 1005,0 hPa 0,0 l/m 0 min 0 min 0 W/m 6,8 km/h (2 Bft) 100,00 %
22.01.2018 08:38 3,5 C 4,4 C 3,3 C 99 % 15 lf 1005,0 hPa 0,0 l/m 0 min 0 min 0 W/m 13,5 km/h (3 Bft) 97,87 %
22.01.2018 08:40 3,6 C 4,4 C 3,3 C 99 % 15 lf 1004,9 hPa 0,0 l/m 0 min 0 min 0 W/m 9,0 km/h (2 Bft) 97,87 %
22.01.2018 08:42 3,7 C 5,0 C 3,3 C 99 % 15 lf 1004,9 hPa 0,0 l/m 0 min 0 min 0 W/m 6,8 km/h (2 Bft) 100,00 %
22.01.2018 08:44 3,7 C 5,0 C 3,3 C 99 % 15 lf 1004,9 hPa 0,0 l/m 0 min 0 min 4 W/m 9,0 km/h (2 Bft) 97,87 %
22.01.2018 08:46 3,8 C 5,0 C 3,9 C 99 % 15 lf 1004,9 hPa 0,0 l/m 0 min 0 min 3 W/m 6,8 km/h (2 Bft) 95,74 %
22.01.2018 08:48 3,9 C 5,0 C 3,9 C 99 % 15 lf 1004,9 hPa 0,0 l/m 0 min 0 min 5 W/m 6,8 km/h (2 Bft) 100,00 %
22.01.2018 08:50 4,0 C 5,0 C 3,9 C 99 % 15 lf 1004,9 hPa 0,0 l/m 0 min 0 min 5 W/m 11,3 km/h (2 Bft) 100,00 %
22.01.2018 08:52 4,1 C 5,6 C 3,9 C 99 % 15 lf 1004,9 hPa 0,0 l/m 0 min 0 min 5 W/m 11,3 km/h (2 Bft) 100,00 %
22.01.2018 08:54 4,2 C 5,6 C 3,9 C 99 % 15 lf 1004,9 hPa 0,0 l/m 0 min 0 min 7 W/m 9,0 km/h (2 Bft) 100,00 %
22.01.2018 08:56 4,3 C 5,6 C 3,9 C 99 % 15 lf 1004,9 hPa 0,0 l/m 0 min 0 min 8 W/m 11,3 km/h (2 Bft) 95,74 %
22.01.2018 08:58 4,4 C 5,6 C 4,4 C 99 % 15 lf 1004,9 hPa 0,0 l/m 0 min 0 min 7 W/m 9,0 km/h (2 Bft) 100,00 %
22.01.2018 09:00 4,5 C 5,6 C 4,4 C 99 % 15 lf 1004,9 hPa 0,0 l/m 0 min 0 min 7 W/m 11,3 km/h (2 Bft) 100,00 %
22.01.2018 09:02 4,7 C 6,1 C 4,4 C 99 % 15 lf 1004,9 hPa 0,0 l/m 0 min 0 min 8 W/m 18,0 km/h (3 Bft) 100,00 %
22.01.2018 09:04 4,9 C 6,1 C 5,0 C 99 % 15 lf 1005,0 hPa 0,0 l/m 0 min 0 min 9 W/m 15,8 km/h (3 Bft) 97,87 %
22.01.2018 09:06 5,1 C 6,1 C 5,0 C 99 % 15 lf 1005,1 hPa 0,0 l/m 0 min 0 min 10 W/m 11,3 km/h (2 Bft) 100,00 %
22.01.2018 09:08 5,3 C 6,1 C 5,0 C 99 % 15 lf 1005,1 hPa 0,0 l/m 0 min 0 min 11 W/m 22,5 km/h (4 Bft) 100,00 %
22.01.2018 09:10 5,4 C 6,1 C 5,0 C 99 % 15 lf 1005,0 hPa 0,0 l/m 0 min 0 min 13 W/m 18,0 km/h (3 Bft) 97,83 %
22.01.2018 09:12 5,6 C 6,1 C 5,0 C 99 % 15 lf 1005,1 hPa 0,0 l/m 0 min 0 min 14 W/m 15,8 km/h (3 Bft) 95,74 %
22.01.2018 09:14 5,7 C 6,1 C 5,0 C 99 % 15 lf 1005,2 hPa 0,0 l/m 0 min 0 min 12 W/m 13,5 km/h (3 Bft) 89,36 %
22.01.2018 09:16 5,8 C 6,7 C 5,0 C 99 % 15 lf 1005,2 hPa 0,0 l/m 0 min 0 min 15 W/m 13,5 km/h (3 Bft) 91,67 %
22.01.2018 09:18 5,9 C 6,7 C 5,0 C 99 % 15 lf 1005,3 hPa 0,0 l/m 0 min 0 min 18 W/m 15,8 km/h (3 Bft) 93,62 %
22.01.2018 09:20 6,1 C 6,7 C 5,0 C 99 % 15 lf 1005,3 hPa 0,0 l/m 0 min 0 min 20 W/m 13,5 km/h (3 Bft) 94,83 %
22.01.2018 09:22 6,2 C 6,7 C 5,0 C 99 % 15 lf 1005,4 hPa 0,0 l/m 0 min 0 min 21 W/m 13,5 km/h (3 Bft) 91,67 %
22.01.2018 09:24 6,2 C 6,7 C 5,0 C 99 % 15 lf 1005,4 hPa 0,0 l/m 0 min 0 min 21 W/m 15,8 km/h (3 Bft) 91,30 %
22.01.2018 09:26 6,3 C 6,7 C 5,0 C 99 % 15 lf 1005,5 hPa 0,0 l/m 0 min 0 min 23 W/m 13,5 km/h (3 Bft) 91,49 %
22.01.2018 09:28 6,3 C 6,7 C 5,0 C 99 % 15 lf 1005,4 hPa 0,0 l/m 0 min 0 min 24 W/m 11,3 km/h (2 Bft) 87,23 %
22.01.2018 09:30 6,4 C 6,7 C 5,0 C 99 % 15 lf 1005,5 hPa 0,0 l/m 0 min 0 min 25 W/m 13,5 km/h (3 Bft) 91,49 %
22.01.2018 09:32 6,4 C 6,7 C 5,0 C 99 % 15 lf 1005,5 hPa 0,0 l/m 0 min 0 min 25 W/m 13,5 km/h (3 Bft) 91,49 %
22.01.2018 09:34 6,4 C 6,7 C 5,0 C 99 % 15 lf 1005,5 hPa 0,0 l/m 0 min 0 min 26 W/m 15,8 km/h (3 Bft) 93,48 %
22.01.2018 09:36 6,4 C 6,7 C 5,0 C 99 % 15 lf 1005,5 hPa 0,0 l/m 0 min 0 min 31 W/m 18,0 km/h (3 Bft) 87,23 %
22.01.2018 09:38 6,5 C 6,7 C 5,6 C 99 % 15 lf 1005,5 hPa 0,0 l/m 0 min 0 min 28 W/m 13,5 km/h (3 Bft) 93,62 %
22.01.2018 09:40 6,5 C 6,7 C 5,6 C 99 % 15 lf 1005,6 hPa 0,0 l/m 0 min 0 min 22 W/m 15,8 km/h (3 Bft) 93,62 %
22.01.2018 09:42 6,5 C 6,7 C 5,0 C 99 % 15 lf 1005,5 hPa 0,0 l/m 0 min 0 min 20 W/m 13,5 km/h (3 Bft) 91,49 %
22.01.2018 09:44 6,5 C 6,7 C 5,0 C 99 % 15 lf 1005,6 hPa 0,0 l/m 0 min 0 min 22 W/m 11,3 km/h (2 Bft) 93,62 %
22.01.2018 09:46 6,6 C 6,7 C 5,0 C 99 % 15 lf 1005,4 hPa 0,0 l/m 0 min 0 min 27 W/m 9,0 km/h (2 Bft) 93,62 %
22.01.2018 09:48 6,6 C 6,7 C 5,0 C 99 % 15 lf 1005,5 hPa 0,0 l/m 0 min 0 min 36 W/m 11,3 km/h (2 Bft) 93,62 %
22.01.2018 09:50 6,6 C 6,7 C 5,6 C 99 % 15 lf 1005,5 hPa 0,0 l/m 0 min 0 min 41 W/m 11,3 km/h (2 Bft) 94,92 %
22.01.2018 09:52 6,6 C 6,7 C 5,6 C 99 % 15 lf 1005,5 hPa 0,0 l/m 0 min 0 min 53 W/m 13,5 km/h (3 Bft) 91,43 %
22.01.2018 09:54 6,7 C 7,2 C 5,6 C 99 % 15 lf 1005,5 hPa 0,0 l/m 0 min 0 min 68 W/m 15,8 km/h (3 Bft) 93,62 %
22.01.2018 09:56 6,7 C 7,2 C 5,6 C 99 % 15 lf 1005,6 hPa 0,0 l/m 0 min 0 min 90 W/m 13,5 km/h (3 Bft) 95,65 %
22.01.2018 09:58 6,7 C 7,2 C 6,1 C 99 % 15 lf 1005,6 hPa 0,0 l/m 2 min 0 min 130 W/m 13,5 km/h (3 Bft) 93,62 %
22.01.2018 10:00 6,7 C 7,2 C 6,1 C 99 % 15 lf 1005,6 hPa 0,0 l/m 2 min 0 min 138 W/m 13,5 km/h (3 Bft) 97,87 %
22.01.2018 10:02 6,8 C 7,8 C 6,1 C 99 % 15 lf 1005,6 hPa 0,0 l/m 2 min 0 min 151 W/m 13,5 km/h (3 Bft) 100,00 %
22.01.2018 10:04 6,8 C 7,8 C 6,1 C 99 % 15 lf 1005,6 hPa 0,0 l/m 2 min 0 min 167 W/m 11,3 km/h (2 Bft) 100,00 %
22.01.2018 10:06 6,9 C 7,8 C 6,1 C 99 % 15 lf 1005,6 hPa 0,0 l/m 2 min 0 min 146 W/m 15,8 km/h (3 Bft) 97,87 %
22.01.2018 10:08 6,9 C 7,8 C 6,1 C 99 % 15 lf 1005,6 hPa 0,0 l/m 2 min 0 min 111 W/m 15,8 km/h (3 Bft) 97,83 %
22.01.2018 10:10 6,9 C 7,8 C 6,1 C 99 % 15 lf 1005,6 hPa 0,0 l/m 0 min 0 min 102 W/m 20,3 km/h (4 Bft) 97,87 %
22.01.2018 10:12 7,0 C 7,8 C 6,1 C 99 % 15 lf 1005,6 hPa 0,0 l/m 0 min 0 min 99 W/m 20,3 km/h (4 Bft) 97,87 %
22.01.2018 10:14 7,0 C 7,8 C 6,1 C 99 % 15 lf 1005,6 hPa 0,0 l/m 0 min 0 min 102 W/m 20,3 km/h (4 Bft) 100,00 %
22.01.2018 10:16 7,1 C 7,8 C 6,1 C 99 % 15 lf 1005,6 hPa 0,0 l/m 0 min 0 min 103 W/m 11,3 km/h (2 Bft) 97,92 %
22.01.2018 10:18 7,1 C 7,8 C 6,1 C 99 % 15 lf 1005,5 hPa 0,0 l/m 0 min 0 min 99 W/m 15,8 km/h (3 Bft) 97,87 %
22.01.2018 10:20 7,1 C 7,2 C 6,1 C 99 % 15 lf 1005,4 hPa 0,0 l/m 0 min 0 min 83 W/m 27,0 km/h (4 Bft) 100,00 %
22.01.2018 10:22 7,1 C 7,2 C 6,1 C 99 % 15 lf 1005,7 hPa 0,0 l/m 0 min 0 min 81 W/m 22,5 km/h (4 Bft) 94,29 %
22.01.2018 10:24 7,1 C 7,2 C 6,1 C 99 % 15 lf 1005,7 hPa 0,0 l/m 0 min 0 min 84 W/m 13,5 km/h (3 Bft) 97,87 %
22.01.2018 10:26 7,1 C 7,2 C 6,1 C 99 % 15 lf 1005,7 hPa 0,0 l/m 0 min 0 min 97 W/m 15,8 km/h (3 Bft) 95,74 %
22.01.2018 10:28 7,1 C 7,2 C 6,1 C 99 % 15 lf 1005,8 hPa 0,0 l/m 0 min 0 min 108 W/m 18,0 km/h (3 Bft) 97,87 %
22.01.2018 10:30 7,1 C 7,8 C 6,1 C 99 % 15 lf 1005,8 hPa 0,0 l/m 0 min 0 min 115 W/m 11,3 km/h (2 Bft) 100,00 %
22.01.2018 10:32 7,1 C 7,8 C 6,7 C 100 % 15 lf 1005,8 hPa 0,0 l/m 0 min 0 min 122 W/m 11,3 km/h (2 Bft) 95,74 %
22.01.2018 10:34 7,1 C 7,8 C 6,7 C 100 % 15 lf 1005,9 hPa 0,0 l/m 0 min 0 min 126 W/m 15,8 km/h (3 Bft) 100,00 %
22.01.2018 10:36 7,2 C 7,8 C 6,7 C 100 % 15 lf 1005,9 hPa 0,0 l/m 2 min 0 min 137 W/m 15,8 km/h (3 Bft) 95,74 %
22.01.2018 10:38 7,2 C 8,3 C 6,7 C 100 % 15 lf 1005,9 hPa 0,0 l/m 2 min 0 min 147 W/m 20,3 km/h (4 Bft) 95,74 %
22.01.2018 10:40 7,2 C 8,3 C 6,7 C 100 % 15 lf 1005,9 hPa 0,0 l/m 2 min 0 min 154 W/m 20,3 km/h (4 Bft) 93,62 %
22.01.2018 10:42 7,2 C 8,3 C 6,7 C 100 % 15 lf 1005,9 hPa 0,0 l/m 0 min 0 min 129 W/m 20,3 km/h (4 Bft) 95,65 %
22.01.2018 10:44 7,2 C 8,3 C 6,7 C 100 % 15 lf 1005,9 hPa 0,0 l/m 2 min 0 min 148 W/m 20,3 km/h (4 Bft) 95,74 %
22.01.2018 10:46 7,2 C 8,3 C 6,7 C 100 % 15 lf 1005,9 hPa 0,0 l/m 0 min 0 min 130 W/m 13,5 km/h (3 Bft) 97,87 %
22.01.2018 10:48 7,3 C 8,3 C 6,7 C 99 % 15 lf 1005,9 hPa 0,0 l/m 0 min 0 min 118 W/m 13,5 km/h (3 Bft) 97,87 %
22.01.2018 10:50 7,3 C 7,8 C 6,7 C 100 % 15 lf 1005,9 hPa 0,0 l/m 0 min 0 min 106 W/m 18,0 km/h (3 Bft) 96,61 %
22.01.2018 10:52 7,3 C 7,8 C 6,1 C 100 % 15 lf 1006,0 hPa 0,0 l/m 0 min 0 min 96 W/m 22,5 km/h (4 Bft) 97,14 %
22.01.2018 10:54 7,3 C 7,8 C 6,1 C 99 % 15 lf 1006,0 hPa 0,0 l/m 0 min 0 min 96 W/m 15,8 km/h (3 Bft) 95,65 %
22.01.2018 10:56 7,3 C 7,8 C 6,1 C 100 % 15 lf 1006,1 hPa 0,0 l/m 0 min 0 min 125 W/m 20,3 km/h (4 Bft) 95,74 %
22.01.2018 10:58 7,2 C 7,8 C 6,1 C 100 % 15 lf 1006,2 hPa 0,0 l/m 0 min 0 min 98 W/m 22,5 km/h (4 Bft) 97,87 %
22.01.2018 11:00 7,3 C 7,8 C 6,1 C 100 % 15 lf 1006,3 hPa 0,0 l/m 0 min 0 min 105 W/m 15,8 km/h (3 Bft) 95,74 %
22.01.2018 11:02 7,2 C 7,8 C 6,1 C 100 % 15 lf 1006,3 hPa 0,0 l/m 0 min 0 min 105 W/m 22,5 km/h (4 Bft) 98,04 %
22.01.2018 11:04 7,2 C 7,8 C 6,7 C 100 % 15 lf 1006,3 hPa 0,0 l/m 0 min 0 min 110 W/m 27,0 km/h (4 Bft) 97,87 %
22.01.2018 11:06 7,2 C 7,8 C 6,7 C 100 % 15 lf 1006,3 hPa 0,0 l/m 0 min 0 min 106 W/m 13,5 km/h (3 Bft) 95,83 %
22.01.2018 11:08 7,2 C 7,8 C 6,7 C 100 % 13 lf 1006,3 hPa 0,0 l/m 0 min 0 min 98 W/m 20,3 km/h (4 Bft) 97,87 %
22.01.2018 11:10 7,2 C 7,8 C 6,7 C 100 % 13 lf 1006,3 hPa 0,0 l/m 0 min 0 min 97 W/m 15,8 km/h (3 Bft) 93,62 %
22.01.2018 11:12 7,2 C 7,8 C 6,7 C 100 % 12 lf 1006,4 hPa 0,0 l/m 0 min 0 min 102 W/m 15,8 km/h (3 Bft) 95,74 %
22.01.2018 11:14 7,2 C 7,8 C 6,7 C 99 % 10 lf 1006,4 hPa 0,0 l/m 0 min 0 min 128 W/m 11,3 km/h (2 Bft) 97,87 %
22.01.2018 11:16 7,2 C 8,3 C 6,7 C 99 % 9 lf 1006,3 hPa 0,0 l/m 0 min 0 min 144 W/m 13,5 km/h (3 Bft) 97,83 %
22.01.2018 11:18 7,3 C 8,3 C 6,7 C 99 % 9 lf 1006,3 hPa 0,0 l/m 0 min 0 min 128 W/m 13,5 km/h (3 Bft) 95,74 %
22.01.2018 11:20 7,3 C 8,3 C 6,7 C 99 % 8 lf 1006,3 hPa 0,0 l/m 0 min 0 min 86 W/m 15,8 km/h (3 Bft) 97,87 %
22.01.2018 11:22 7,3 C 8,3 C 6,7 C 99 % 7 lf 1006,3 hPa 0,0 l/m 0 min 0 min 86 W/m 18,0 km/h (3 Bft) 91,49 %
22.01.2018 11:24 7,3 C 7,8 C 6,7 C 99 % 6 lf 1006,3 hPa 0,0 l/m 0 min 0 min 95 W/m 11,3 km/h (2 Bft) 95,74 %
22.01.2018 11:26 7,3 C 7,8 C 6,7 C 99 % 6 lf 1006,3 hPa 0,0 l/m 0 min 0 min 126 W/m 13,5 km/h (3 Bft) 97,83 %
22.01.2018 11:28 7,3 C 8,3 C 6,7 C 99 % 4 lf 1006,3 hPa 0,0 l/m 2 min 0 min 175 W/m 13,5 km/h (3 Bft) 93,62 %
22.01.2018 11:30 7,3 C 8,9 C 7,2 C 99 % 4 lf 1006,3 hPa 0,0 l/m 2 min 0 min 219 W/m 18,0 km/h (3 Bft) 97,87 %
22.01.2018 11:32 7,3 C 9,4 C 7,2 C 99 % 4 lf 1006,3 hPa 0,0 l/m 2 min 0 min 200 W/m 18,0 km/h (3 Bft) 100,00 %
22.01.2018 11:34 7,4 C 9,4 C 7,2 C 99 % 3 lf 1006,3 hPa 0,0 l/m 2 min 0 min 224 W/m 29,3 km/h (5 Bft) 93,62 %
22.01.2018 11:36 7,4 C 10,6 C 7,2 C 99 % 3 lf 1006,3 hPa 0,0 l/m 2 min 0 min 259 W/m 13,5 km/h (3 Bft) 95,74 %
22.01.2018 11:38 7,4 C 10,6 C 7,2 C 99 % 3 lf 1006,3 hPa 0,0 l/m 2 min 0 min 213 W/m 15,8 km/h (3 Bft) 97,87 %
22.01.2018 11:40 7,5 C 10,0 C 7,2 C 100 % 3 lf 1006,3 hPa 0,0 l/m 0 min 0 min 169 W/m 18,0 km/h (3 Bft) 97,83 %
22.01.2018 11:42 7,5 C 10,6 C 7,2 C 100 % 2 lf 1006,3 hPa 0,0 l/m 2 min 0 min 174 W/m 18,0 km/h (3 Bft) 97,87 %
22.01.2018 11:44 7,6 C 10,6 C 7,2 C 100 % 2 lf 1006,4 hPa 0,0 l/m 2 min 0 min 195 W/m 20,3 km/h (4 Bft) 95,74 %
22.01.2018 11:46 7,6 C 10,6 C 7,2 C 100 % 2 lf 1006,4 hPa 0,0 l/m 2 min 0 min 233 W/m 20,3 km/h (4 Bft) 95,74 %
22.01.2018 11:48 7,6 C 11,1 C 7,2 C 100 % 1 lf 1006,4 hPa 0,0 l/m 2 min 0 min 221 W/m 9,0 km/h (2 Bft) 97,87 %
22.01.2018 11:50 7,7 C 11,1 C 7,2 C 99 % 1 lf 1006,4 hPa 0,0 l/m 2 min 0 min 225 W/m 11,3 km/h (2 Bft) 95,65 %
22.01.2018 11:52 7,7 C 10,6 C 7,2 C 99 % 1 lf 1006,4 hPa 0,0 l/m 0 min 0 min 173 W/m 13,5 km/h (3 Bft) 93,62 %
22.01.2018 11:54 7,7 C 9,4 C 7,2 C 99 % 1 lf 1006,4 hPa 0,0 l/m 0 min 0 min 116 W/m 22,5 km/h (4 Bft) 95,74 %
22.01.2018 11:56 7,7 C 9,4 C 7,2 C 99 % 0 lf 1006,4 hPa 0,0 l/m 0 min 0 min 122 W/m 18,0 km/h (3 Bft) 95,74 %
22.01.2018 11:58 7,7 C 9,4 C 7,2 C 99 % 0 lf 1006,4 hPa 0,0 l/m 0 min 0 min 140 W/m 11,3 km/h (2 Bft) 95,74 %
22.01.2018 12:00 7,7 C 8,9 C 7,2 C 99 % 0 lf 1006,4 hPa 0,0 l/m 0 min 0 min 155 W/m 13,5 km/h (3 Bft) 93,62 %
22.01.2018 12:02 7,7 C 9,4 C 7,8 C 99 % 0 lf 1006,4 hPa 0,0 l/m 0 min 0 min 152 W/m 9,0 km/h (2 Bft) 95,65 %
22.01.2018 12:04 7,8 C 9,4 C 7,8 C 99 % 0 lf 1006,4 hPa 0,0 l/m 0 min 0 min 139 W/m 22,5 km/h (4 Bft) 91,49 %
22.01.2018 12:06 7,8 C 8,9 C 7,2 C 99 % 0 lf 1006,4 hPa 0,0 l/m 0 min 0 min 130 W/m 20,3 km/h (4 Bft) 93,75 %
22.01.2018 12:08 7,8 C 9,4 C 7,8 C 99 % 0 lf 1006,4 hPa 0,0 l/m 0 min 0 min 152 W/m 20,3 km/h (4 Bft) 93,62 %
22.01.2018 12:10 7,8 C 9,4 C 7,2 C 99 % 0 lf 1006,4 hPa 0,0 l/m 0 min 0 min 137 W/m 20,3 km/h (4 Bft) 91,49 %
22.01.2018 12:12 7,7 C 9,4 C 7,2 C 99 % 0 lf 1006,4 hPa 0,0 l/m 0 min 0 min 122 W/m 18,0 km/h (3 Bft) 95,74 %
22.01.2018 12:14 7,7 C 9,4 C 7,2 C 99 % 0 lf 1006,5 hPa 0,0 l/m 0 min 0 min 132 W/m 20,3 km/h (4 Bft) 95,65 %
22.01.2018 12:16 7,7 C 9,4 C 7,8 C 99 % 0 lf 1006,5 hPa 0,0 l/m 0 min 0 min 137 W/m 13,5 km/h (3 Bft) 93,62 %
22.01.2018 12:18 7,7 C 9,4 C 7,8 C 99 % 0 lf 1006,4 hPa 0,0 l/m 0 min 0 min 162 W/m 22,5 km/h (4 Bft) 91,49 %
22.01.2018 12:20 7,8 C 10,0 C 7,8 C 99 % 0 lf 1006,4 hPa 0,0 l/m 0 min 0 min 170 W/m 15,8 km/h (3 Bft) 91,49 %
22.01.2018 12:22 7,8 C 10,0 C 7,8 C 99 % 0 lf 1006,5 hPa 0,0 l/m 0 min 0 min 149 W/m 15,8 km/h (3 Bft) 93,62 %
22.01.2018 12:24 7,8 C 9,4 C 7,8 C 99 % 0 lf 1006,5 hPa 0,0 l/m 0 min 0 min 113 W/m 18,0 km/h (3 Bft) 93,62 %
22.01.2018 12:26 7,8 C 9,4 C 7,2 C 99 % 0 lf 1006,5 hPa 0,0 l/m 0 min 0 min 110 W/m 20,3 km/h (4 Bft) 95,65 %
22.01.2018 12:28 7,8 C 9,4 C 7,2 C 99 % 0 lf 1006,6 hPa 0,0 l/m 0 min 0 min 119 W/m 20,3 km/h (4 Bft) 95,74 %
22.01.2018 12:30 7,8 C 9,4 C 7,2 C 99 % 0 lf 1006,5 hPa 0,0 l/m 0 min 0 min 133 W/m 18,0 km/h (3 Bft) 95,74 %
22.01.2018 12:32 7,8 C 10,0 C 7,8 C 99 % 0 lf 1006,5 hPa 0,0 l/m 2 min 0 min 185 W/m 15,8 km/h (3 Bft) 93,62 %
22.01.2018 12:34 7,9 C 10,0 C 7,8 C 99 % 0 lf 1006,4 hPa 0,0 l/m 0 min 0 min 176 W/m 18,0 km/h (3 Bft) 91,49 %
22.01.2018 12:36 7,9 C 10,0 C 7,8 C 99 % 0 lf 1006,5 hPa 0,0 l/m 0 min 0 min 177 W/m 18,0 km/h (3 Bft) 93,62 %
22.01.2018 12:38 7,9 C 10,0 C 7,8 C 99 % 0 lf 1006,5 hPa 0,0 l/m 0 min 0 min 164 W/m 20,3 km/h (4 Bft) 97,83 %
22.01.2018 12:40 7,9 C 10,6 C 7,8 C 99 % 0 lf 1006,5 hPa 0,0 l/m 0 min 0 min 174 W/m 20,3 km/h (4 Bft) 97,87 %
22.01.2018 12:42 7,9 C 10,6 C 7,8 C 99 % 0 lf 1006,5 hPa 0,0 l/m 2 min 0 min 198 W/m 18,0 km/h (3 Bft) 95,74 %
22.01.2018 12:44 8,0 C 11,1 C 7,8 C 99 % 0 lf 1006,4 hPa 0,0 l/m 2 min 0 min 236 W/m 15,8 km/h (3 Bft) 97,87 %
22.01.2018 12:46 8,0 C 12,8 C 8,3 C 99 % 0 lf 1006,4 hPa 0,0 l/m 2 min 0 min 300 W/m 18,0 km/h (3 Bft) 95,12 %
22.01.2018 12:48 8,1 C 13,3 C 8,3 C 99 % 0 lf 1006,5 hPa 0,0 l/m 2 min 0 min 289 W/m 15,8 km/h (3 Bft) 97,87 %
22.01.2018 12:50 8,2 C 13,3 C 8,3 C 99 % 0 lf 1006,5 hPa 0,0 l/m 2 min 0 min 239 W/m 18,0 km/h (3 Bft) 96,15 %
22.01.2018 12:52 8,2 C 12,8 C 8,3 C 99 % 0 lf 1006,5 hPa 0,0 l/m 0 min 0 min 166 W/m 22,5 km/h (4 Bft) 95,12 %
22.01.2018 12:54 8,2 C 11,7 C 7,8 C 99 % 0 lf 1006,5 hPa 0,0 l/m 0 min 0 min 146 W/m 22,5 km/h (4 Bft) 97,87 %
22.01.2018 12:56 8,2 C 11,1 C 7,8 C 99 % 0 lf 1006,5 hPa 0,0 l/m 0 min 0 min 157 W/m 15,8 km/h (3 Bft) 97,87 %
22.01.2018 12:58 8,2 C 10,6 C 7,8 C 99 % 0 lf 1006,5 hPa 0,0 l/m 0 min 0 min 169 W/m 24,8 km/h (4 Bft) 100,00 %
22.01.2018 13:00 8,2 C 10,6 C 7,8 C 99 % 0 lf 1006,5 hPa 0,0 l/m 0 min 0 min 161 W/m 15,8 km/h (3 Bft) 97,87 %
22.01.2018 13:02 8,2 C 10,6 C 7,8 C 99 % 0 lf 1006,5 hPa 0,0 l/m 0 min 0 min 148 W/m 24,8 km/h (4 Bft) 97,87 %
22.01.2018 13:04 8,2 C 10,0 C 7,8 C 99 % 0 lf 1006,5 hPa 0,0 l/m 0 min 0 min 118 W/m 15,8 km/h (3 Bft) 100,00 %
22.01.2018 13:06 8,2 C 10,0 C 7,8 C 99 % 0 lf 1006,5 hPa 0,0 l/m 0 min 0 min 115 W/m 11,3 km/h (2 Bft) 100,00 %
22.01.2018 13:08 8,2 C 10,0 C 7,2 C 99 % 0 lf 1006,6 hPa 0,0 l/m 0 min 0 min 107 W/m 20,3 km/h (4 Bft) 100,00 %
22.01.2018 13:10 8,2 C 9,4 C 7,2 C 99 % 0 lf 1006,7 hPa 0,0 l/m 0 min 0 min 114 W/m 15,8 km/h (3 Bft) 97,87 %
22.01.2018 13:12 8,2 C 9,4 C 7,2 C 99 % 0 lf 1006,7 hPa 0,0 l/m 0 min 0 min 120 W/m 18,0 km/h (3 Bft) 100,00 %
22.01.2018 13:14 8,2 C 10,0 C 7,2 C 99 % 0 lf 1006,7 hPa 0,0 l/m 0 min 0 min 126 W/m 11,3 km/h (2 Bft) 97,83 %
22.01.2018 13:16 8,2 C 10,0 C 7,8 C 99 % 0 lf 1006,7 hPa 0,0 l/m 0 min 0 min 137 W/m 15,8 km/h (3 Bft) 100,00 %
22.01.2018 13:18 8,2 C 10,0 C 7,8 C 99 % 0 lf 1006,7 hPa 0,0 l/m 0 min 0 min 135 W/m 15,8 km/h (3 Bft) 100,00 %
22.01.2018 13:20 8,2 C 10,0 C 7,8 C 99 % 0 lf 1006,7 hPa 0,0 l/m 0 min 0 min 135 W/m 15,8 km/h (3 Bft) 97,87 %
22.01.2018 13:22 8,2 C 10,0 C 7,8 C 98 % 0 lf 1006,7 hPa 0,0 l/m 0 min 0 min 136 W/m 20,3 km/h (4 Bft) 100,00 %
22.01.2018 13:24 8,2 C 10,0 C 7,2 C 98 % 0 lf 1006,8 hPa 0,0 l/m 0 min 0 min 128 W/m 20,3 km/h (4 Bft) 100,00 %
22.01.2018 13:26 8,2 C 9,4 C 7,2 C 98 % 0 lf 1006,8 hPa 0,0 l/m 0 min 0 min 119 W/m 20,3 km/h (4 Bft) 95,65 %
22.01.2018 13:28 8,2 C 9,4 C 7,2 C 98 % 0 lf 1006,8 hPa 0,0 l/m 0 min 0 min 124 W/m 18,0 km/h (3 Bft) 100,00 %
22.01.2018 13:30 8,2 C 9,4 C 7,2 C 98 % 0 lf 1006,8 hPa 0,0 l/m 0 min 0 min 116 W/m 18,0 km/h (3 Bft) 95,74 %
22.01.2018 13:32 8,2 C 9,4 C 7,2 C 98 % 0 lf 1006,8 hPa 0,0 l/m 0 min 0 min 86 W/m 13,5 km/h (3 Bft) 97,87 %
22.01.2018 13:34 8,2 C 9,4 C 7,2 C 98 % 0 lf 1006,9 hPa 0,0 l/m 0 min 0 min 76 W/m 15,8 km/h (3 Bft) 100,00 %
22.01.2018 13:36 8,2 C 9,4 C 7,2 C 97 % 0 lf 1006,9 hPa 0,0 l/m 0 min 0 min 66 W/m 18,0 km/h (3 Bft) 97,87 %
22.01.2018 13:38 8,2 C 9,4 C 7,2 C 97 % 0 lf 1006,9 hPa 0,0 l/m 0 min 0 min 71 W/m 20,3 km/h (4 Bft) 95,65 %
22.01.2018 13:40 8,2 C 8,9 C 7,2 C 97 % 0 lf 1006,9 hPa 0,0 l/m 0 min 0 min 85 W/m 20,3 km/h (4 Bft) 93,62 %
22.01.2018 13:42 8,2 C 9,4 C 7,2 C 97 % 0 lf 1006,9 hPa 0,0 l/m 0 min 0 min 90 W/m 18,0 km/h (3 Bft) 91,49 %
22.01.2018 13:44 8,2 C 8,9 C 6,7 C 96 % 0 lf 1006,9 hPa 0,0 l/m 0 min 0 min 70 W/m 9,0 km/h (2 Bft) 91,49 %
22.01.2018 13:46 8,2 C 8,9 C 6,7 C 96 % 0 lf 1006,9 hPa 0,0 l/m 0 min 0 min 66 W/m 15,8 km/h (3 Bft) 93,62 %
22.01.2018 13:48 8,2 C 8,9 C 6,7 C 96 % 0 lf 1007,0 hPa 0,0 l/m 0 min 0 min 64 W/m 15,8 km/h (3 Bft) 93,62 %
22.01.2018 13:50 8,2 C 8,9 C 6,7 C 96 % 0 lf 1007,0 hPa 0,0 l/m 0 min 0 min 70 W/m 18,0 km/h (3 Bft) 95,65 %
22.01.2018 13:52 8,2 C 8,9 C 6,7 C 95 % 0 lf 1007,0 hPa 0,0 l/m 0 min 0 min 76 W/m 11,3 km/h (2 Bft) 93,62 %
22.01.2018 13:54 8,2 C 8,9 C 6,7 C 95 % 0 lf 1007,1 hPa 0,0 l/m 0 min 0 min 89 W/m 15,8 km/h (3 Bft) 95,74 %
22.01.2018 13:56 8,2 C 8,9 C 7,2 C 95 % 0 lf 1007,1 hPa 0,0 l/m 0 min 0 min 94 W/m 15,8 km/h (3 Bft) 95,74 %
22.01.2018 13:58 8,2 C 8,9 C 7,2 C 95 % 0 lf 1007,1 hPa 0,0 l/m 0 min 0 min 88 W/m 11,3 km/h (2 Bft) 91,49 %
22.01.2018 14:00 8,2 C 9,4 C 7,2 C 95 % 0 lf 1007,1 hPa 0,0 l/m 0 min 0 min 86 W/m 11,3 km/h (2 Bft) 93,48 %
22.01.2018 14:02 8,2 C 9,4 C 7,2 C 95 % 0 lf 1007,1 hPa 0,0 l/m 0 min 0 min 84 W/m 9,0 km/h (2 Bft) 95,74 %
22.01.2018 14:04 8,2 C 9,4 C 7,2 C 94 % 0 lf 1007,1 hPa 0,0 l/m 0 min 0 min 84 W/m 11,3 km/h (2 Bft) 93,62 %
22.01.2018 14:06 8,2 C 8,9 C 7,2 C 94 % 0 lf 1007,0 hPa 0,0 l/m 0 min 0 min 80 W/m 18,0 km/h (3 Bft) 95,74 %
22.01.2018 14:08 8,2 C 8,9 C 7,2 C 94 % 0 lf 1007,0 hPa 0,0 l/m 0 min 0 min 78 W/m 15,8 km/h (3 Bft) 93,62 %
22.01.2018 14:10 8,2 C 8,9 C 7,2 C 94 % 0 lf 1007,0 hPa 0,0 l/m 0 min 0 min 94 W/m 15,8 km/h (3 Bft) 95,74 %
22.01.2018 14:12 8,2 C 9,4 C 7,2 C 94 % 0 lf 1007,1 hPa 0,0 l/m 0 min 0 min 95 W/m 20,3 km/h (4 Bft) 91,30 %
22.01.2018 14:14 8,2 C 9,4 C 7,2 C 94 % 0 lf 1007,1 hPa 0,0 l/m 0 min 0 min 104 W/m 11,3 km/h (2 Bft) 95,74 %
22.01.2018 14:16 8,2 C 9,4 C 7,2 C 94 % 0 lf 1007,1 hPa 0,0 l/m 0 min 0 min 103 W/m 20,3 km/h (4 Bft) 95,83 %
22.01.2018 14:18 8,2 C 8,9 C 7,2 C 93 % 0 lf 1007,1 hPa 0,0 l/m 0 min 0 min 100 W/m 15,8 km/h (3 Bft) 95,74 %
22.01.2018 14:20 8,2 C 9,4 C 7,2 C 93 % 0 lf 1007,2 hPa 0,0 l/m 0 min 0 min 97 W/m 13,5 km/h (3 Bft) 95,74 %
22.01.2018 14:22 8,2 C 8,9 C 7,2 C 93 % 0 lf 1007,3 hPa 0,0 l/m 0 min 0 min 93 W/m 18,0 km/h (3 Bft) 95,74 %
22.01.2018 14:24 8,2 C 8,9 C 7,2 C 93 % 0 lf 1007,3 hPa 0,0 l/m 0 min 0 min 94 W/m 18,0 km/h (3 Bft) 95,65 %
22.01.2018 14:26 8,3 C 9,4 C 7,2 C 93 % 0 lf 1007,3 hPa 0,0 l/m 0 min 0 min 98 W/m 15,8 km/h (3 Bft) 97,87 %
22.01.2018 14:28 8,3 C 9,4 C 7,2 C 92 % 0 lf 1007,2 hPa 0,0 l/m 0 min 0 min 101 W/m 13,5 km/h (3 Bft) 95,74 %
22.01.2018 14:30 8,3 C 9,4 C 7,2 C 92 % 0 lf 1007,1 hPa 0,0 l/m 0 min 0 min 103 W/m 13,5 km/h (3 Bft) 93,62 %
22.01.2018 14:32 8,3 C 9,4 C 7,2 C 92 % 0 lf 1007,1 hPa 0,0 l/m 0 min 0 min 102 W/m 9,0 km/h (2 Bft) 95,74 %
22.01.2018 14:34 8,3 C 9,4 C 7,2 C 92 % 0 lf 1007,1 hPa 0,0 l/m 0 min 0 min 102 W/m 13,5 km/h (3 Bft) 97,87 %
22.01.2018 14:36 8,3 C 9,4 C 7,2 C 92 % 0 lf 1007,1 hPa 0,0 l/m 0 min 0 min 99 W/m 15,8 km/h (3 Bft) 91,30 %
22.01.2018 14:38 8,3 C 9,4 C 7,2 C 92 % 0 lf 1007,1 hPa 0,0 l/m 0 min 0 min 98 W/m 18,0 km/h (3 Bft) 93,62 %
22.01.2018 14:40 8,3 C 9,4 C 7,2 C 92 % 0 lf 1007,3 hPa 0,0 l/m 0 min 0 min 99 W/m 20,3 km/h (4 Bft) 91,49 %
22.01.2018 14:42 8,3 C 9,4 C 7,2 C 92 % 0 lf 1007,3 hPa 0,0 l/m 0 min 0 min 98 W/m 13,5 km/h (3 Bft) 97,87 %
22.01.2018 14:44 8,3 C 9,4 C 7,2 C 91 % 0 lf 1007,3 hPa 0,0 l/m 0 min 0 min 97 W/m 13,5 km/h (3 Bft) 97,87 %
22.01.2018 14:46 8,3 C 9,4 C 7,2 C 91 % 0 lf 1007,5 hPa 0,0 l/m 0 min 0 min 92 W/m 11,3 km/h (2 Bft) 89,36 %
22.01.2018 14:48 8,3 C 9,4 C 7,2 C 91 % 0 lf 1007,5 hPa 0,0 l/m 0 min 0 min 88 W/m 15,8 km/h (3 Bft) 97,87 %
22.01.2018 14:50 8,3 C 9,4 C 7,2 C 91 % 0 lf 1007,5 hPa 0,0 l/m 0 min 0 min 83 W/m 6,8 km/h (2 Bft) 97,87 %
22.01.2018 14:52 8,3 C 9,4 C 7,2 C 91 % 0 lf 1007,5 hPa 0,0 l/m 0 min 0 min 79 W/m 18,0 km/h (3 Bft) 95,74 %
22.01.2018 14:54 8,4 C 8,9 C 7,2 C 91 % 0 lf 1007,6 hPa 0,0 l/m 0 min 0 min 77 W/m 18,0 km/h (3 Bft) 97,87 %
22.01.2018 14:56 8,4 C 8,9 C 6,7 C 91 % 0 lf 1007,6 hPa 0,0 l/m 0 min 0 min 77 W/m 15,8 km/h (3 Bft) 95,74 %
22.01.2018 14:58 8,3 C 8,9 C 7,2 C 91 % 0 lf 1007,6 hPa 0,0 l/m 0 min 0 min 74 W/m 11,3 km/h (2 Bft) 93,48 %
22.01.2018 15:00 8,4 C 8,9 C 6,7 C 90 % 0 lf 1007,7 hPa 0,0 l/m 0 min 0 min 66 W/m 18,0 km/h (3 Bft) 97,87 %
22.01.2018 15:02 8,4 C 8,9 C 6,7 C 90 % 0 lf 1007,8 hPa 0,0 l/m 0 min 0 min 63 W/m 11,3 km/h (2 Bft) 93,62 %
22.01.2018 15:04 8,4 C 8,9 C 6,7 C 91 % 0 lf 1007,8 hPa 0,0 l/m 0 min 0 min 69 W/m 11,3 km/h (2 Bft) 91,49 %
22.01.2018 15:06 8,4 C 8,9 C 6,7 C 90 % 0 lf 1007,8 hPa 0,0 l/m 0 min 0 min 66 W/m 11,3 km/h (2 Bft) 93,62 %
22.01.2018 15:08 8,4 C 8,9 C 6,7 C 90 % 0 lf 1007,9 hPa 0,0 l/m 0 min 0 min 56 W/m 13,5 km/h (3 Bft) 91,49 %
22.01.2018 15:10 8,4 C 8,9 C 6,7 C 90 % 0 lf 1007,9 hPa 0,0 l/m 0 min 0 min 58 W/m 11,3 km/h (2 Bft) 95,74 %
22.01.2018 15:12 8,4 C 8,9 C 6,7 C 90 % 0 lf 1008,0 hPa 0,0 l/m 0 min 0 min 63 W/m 20,3 km/h (4 Bft) 95,65 %
22.01.2018 15:14 8,4 C 8,9 C 6,7 C 90 % 0 lf 1008,0 hPa 0,0 l/m 0 min 0 min 63 W/m 13,5 km/h (3 Bft) 95,74 %
22.01.2018 15:16 8,4 C 8,9 C 6,7 C 90 % 0 lf 1008,1 hPa 0,0 l/m 0 min 0 min 57 W/m 20,3 km/h (4 Bft) 93,75 %
22.01.2018 15:18 8,4 C 8,9 C 6,7 C 90 % 0 lf 1008,1 hPa 0,0 l/m 0 min 0 min 54 W/m 15,8 km/h (3 Bft) 97,87 %
22.01.2018 15:20 8,3 C 8,9 C 6,7 C 90 % 0 lf 1008,1 hPa 0,0 l/m 0 min 0 min 54 W/m 18,0 km/h (3 Bft) 97,87 %
22.01.2018 15:22 8,3 C 8,9 C 6,7 C 90 % 0 lf 1008,1 hPa 0,0 l/m 0 min 0 min 55 W/m 15,8 km/h (3 Bft) 97,83 %
22.01.2018 15:24 8,3 C 8,9 C 6,7 C 90 % 0 lf 1008,2 hPa 0,0 l/m 0 min 0 min 54 W/m 13,5 km/h (3 Bft) 95,74 %
22.01.2018 15:26 8,3 C 8,9 C 6,7 C 90 % 0 lf 1008,2 hPa 0,0 l/m 0 min 0 min 54 W/m 9,0 km/h (2 Bft) 93,62 %
22.01.2018 15:28 8,3 C 8,9 C 6,7 C 90 % 0 lf 1008,3 hPa 0,0 l/m 0 min 0 min 57 W/m 20,3 km/h (4 Bft) 95,74 %
22.01.2018 15:30 8,3 C 8,9 C 6,7 C 90 % 0 lf 1008,4 hPa 0,0 l/m 0 min 0 min 58 W/m 18,0 km/h (3 Bft) 97,87 %
22.01.2018 15:32 8,3 C 8,3 C 6,7 C 90 % 0 lf 1008,4 hPa 0,0 l/m 0 min 0 min 54 W/m 13,5 km/h (3 Bft) 93,62 %
22.01.2018 15:34 8,3 C 8,3 C 6,7 C 90 % 0 lf 1008,5 hPa 0,0 l/m 0 min 0 min 54 W/m 20,3 km/h (4 Bft) 95,65 %
22.01.2018 15:36 8,3 C 8,3 C 6,7 C 90 % 0 lf 1008,5 hPa 0,0 l/m 0 min 0 min 53 W/m 15,8 km/h (3 Bft) 97,87 %
22.01.2018 15:38 8,3 C 8,3 C 6,7 C 90 % 0 lf 1008,6 hPa 0,0 l/m 0 min 0 min 55 W/m 15,8 km/h (3 Bft) 95,74 %
22.01.2018 15:40 8,3 C 8,9 C 6,7 C 89 % 0 lf 1008,5 hPa 0,0 l/m 0 min 0 min 56 W/m 13,5 km/h (3 Bft) 97,87 %
22.01.2018 15:42 8,3 C 8,9 C 6,7 C 89 % 0 lf 1008,6 hPa 0,0 l/m 0 min 0 min 53 W/m 11,3 km/h (2 Bft) 97,87 %
22.01.2018 15:44 8,3 C 8,9 C 6,7 C 89 % 0 lf 1008,6 hPa 0,0 l/m 0 min 0 min 51 W/m 13,5 km/h (3 Bft) 95,74 %
22.01.2018 15:46 8,3 C 8,3 C 6,7 C 89 % 0 lf 1008,6 hPa 0,0 l/m 0 min 0 min 50 W/m 18,0 km/h (3 Bft) 95,74 %
22.01.2018 15:48 8,3 C 8,3 C 6,7 C 89 % 0 lf 1008,6 hPa 0,0 l/m 0 min 0 min 48 W/m 15,8 km/h (3 Bft) 95,74 %
22.01.2018 15:50 8,3 C 8,3 C 6,7 C 89 % 0 lf 1008,6 hPa 0,0 l/m 0 min 0 min 48 W/m 15,8 km/h (3 Bft) 95,74 %
22.01.2018 15:52 8,3 C 8,3 C 6,7 C 90 % 0 lf 1008,7 hPa 0,0 l/m 0 min 0 min 51 W/m 15,8 km/h (3 Bft) 95,74 %
22.01.2018 15:54 8,3 C 8,3 C 6,7 C 89 % 0 lf 1008,6 hPa 0,0 l/m 0 min 0 min 48 W/m 13,5 km/h (3 Bft) 97,87 %
22.01.2018 15:56 8,3 C 8,3 C 6,7 C 89 % 0 lf 1008,6 hPa 0,0 l/m 0 min 0 min 46 W/m 18,0 km/h (3 Bft) 97,83 %
22.01.2018 15:58 8,3 C 8,3 C 6,7 C 89 % 0 lf 1008,6 hPa 0,0 l/m 0 min 0 min 44 W/m 15,8 km/h (3 Bft) 95,74 %
22.01.2018 16:00 8,2 C 8,3 C 6,7 C 89 % 0 lf 1008,6 hPa 0,0 l/m 0 min 0 min 44 W/m 15,8 km/h (3 Bft) 95,74 %
22.01.2018 16:02 8,2 C 8,3 C 6,7 C 89 % 0 lf 1008,7 hPa 0,0 l/m 0 min 0 min 43 W/m 24,8 km/h (4 Bft) 98,00 %
22.01.2018 16:04 8,2 C 8,3 C 6,7 C 89 % 0 lf 1008,7 hPa 0,0 l/m 0 min 0 min 42 W/m 13,5 km/h (3 Bft) 95,74 %
22.01.2018 16:06 8,2 C 8,3 C 6,7 C 89 % 0 lf 1008,7 hPa 0,0 l/m 0 min 0 min 39 W/m 15,8 km/h (3 Bft) 97,87 %
22.01.2018 16:08 8,2 C 8,3 C 6,1 C 89 % 0 lf 1008,8 hPa 0,0 l/m 0 min 0 min 33 W/m 11,3 km/h (2 Bft) 97,83 %
22.01.2018 16:10 8,2 C 8,3 C 6,1 C 89 % 0 lf 1008,8 hPa 0,0 l/m 0 min 0 min 30 W/m 13,5 km/h (3 Bft) 97,87 %
22.01.2018 16:12 8,2 C 8,3 C 6,1 C 89 % 0 lf 1008,8 hPa 0,0 l/m 0 min 0 min 27 W/m 11,3 km/h (2 Bft) 95,74 %
22.01.2018 16:14 8,2 C 8,3 C 6,1 C 89 % 0 lf 1008,9 hPa 0,0 l/m 0 min 0 min 26 W/m 15,8 km/h (3 Bft) 97,87 %
22.01.2018 16:16 8,2 C 8,3 C 6,1 C 89 % 0 lf 1008,9 hPa 0,0 l/m 0 min 0 min 25 W/m 9,0 km/h (2 Bft) 95,74 %
22.01.2018 16:18 8,2 C 8,3 C 6,1 C 89 % 0 lf 1009,0 hPa 0,0 l/m 0 min 0 min 24 W/m 11,3 km/h (2 Bft) 100,00 %
22.01.2018 16:20 8,2 C 8,3 C 6,1 C 89 % 0 lf 1009,0 hPa 0,0 l/m 0 min 0 min 20 W/m 11,3 km/h (2 Bft) 97,87 %
22.01.2018 16:22 8,2 C 7,8 C 6,1 C 89 % 0 lf 1009,1 hPa 0,0 l/m 0 min 0 min 17 W/m 13,5 km/h (3 Bft) 100,00 %
22.01.2018 16:24 8,1 C 7,8 C 6,1 C 89 % 0 lf 1009,0 hPa 0,0 l/m 0 min 0 min 15 W/m 9,0 km/h (2 Bft) 100,00 %
22.01.2018 16:26 8,2 C 7,8 C 6,1 C 89 % 0 lf 1009,0 hPa 0,0 l/m 0 min 0 min 14 W/m 13,5 km/h (3 Bft) 100,00 %
22.01.2018 16:28 8,2 C 7,8 C 6,1 C 89 % 0 lf 1009,1 hPa 0,0 l/m 0 min 0 min 14 W/m 11,3 km/h (2 Bft) 100,00 %
22.01.2018 16:30 8,1 C 7,8 C 6,1 C 89 % 0 lf 1009,2 hPa 0,0 l/m 0 min 0 min 12 W/m 9,0 km/h (2 Bft) 100,00 %
22.01.2018 16:32 8,1 C 7,8 C 6,1 C 89 % 0 lf 1009,2 hPa 0,0 l/m 0 min 0 min 12 W/m 15,8 km/h (3 Bft) 95,74 %
22.01.2018 16:34 8,1 C 7,8 C 6,1 C 89 % 0 lf 1009,2 hPa 0,0 l/m 0 min 0 min 12 W/m 13,5 km/h (3 Bft) 100,00 %
22.01.2018 16:36 8,1 C 7,8 C 6,1 C 89 % 0 lf 1009,3 hPa 0,0 l/m 0 min 0 min 11 W/m 13,5 km/h (3 Bft) 100,00 %
22.01.2018 16:38 8,1 C 7,8 C 6,1 C 89 % 0 lf 1009,4 hPa 0,0 l/m 0 min 0 min 8 W/m 20,3 km/h (4 Bft) 100,00 %
22.01.2018 16:40 8,0 C 7,8 C 6,1 C 89 % 0 lf 1009,6 hPa 0,0 l/m 0 min 0 min 7 W/m 15,8 km/h (3 Bft) 100,00 %
22.01.2018 16:42 8,0 C 7,8 C 6,1 C 89 % 0 lf 1009,7 hPa 0,0 l/m 0 min 0 min 5 W/m 18,0 km/h (3 Bft) 100,00 %
22.01.2018 16:44 8,0 C 7,8 C 5,6 C 89 % 0 lf 1009,7 hPa 0,0 l/m 0 min 0 min 5 W/m 18,0 km/h (3 Bft) 97,87 %
22.01.2018 16:46 7,9 C 7,8 C 5,6 C 89 % 0 lf 1009,7 hPa 0,0 l/m 0 min 0 min 6 W/m 15,8 km/h (3 Bft) 100,00 %
22.01.2018 16:48 7,9 C 7,8 C 5,6 C 89 % 0 lf 1009,7 hPa 0,0 l/m 0 min 0 min 7 W/m 15,8 km/h (3 Bft) 100,00 %
22.01.2018 16:50 7,9 C 7,8 C 5,6 C 89 % 0 lf 1009,8 hPa 0,0 l/m 0 min 0 min 8 W/m 15,8 km/h (3 Bft) 100,00 %
22.01.2018 16:52 7,9 C 7,8 C 5,6 C 89 % 0 lf 1009,8 hPa 0,0 l/m 0 min 0 min 9 W/m 20,3 km/h (4 Bft) 93,62 %
22.01.2018 16:54 7,9 C 7,8 C 5,6 C 89 % 0 lf 1009,8 hPa 0,0 l/m 0 min 0 min 8 W/m 20,3 km/h (4 Bft) 97,83 %
22.01.2018 16:56 7,9 C 7,8 C 5,6 C 89 % 0 lf 1009,9 hPa 0,0 l/m 0 min 0 min 7 W/m 22,5 km/h (4 Bft) 97,87 %
22.01.2018 16:58 7,8 C 7,8 C 5,6 C 89 % 0 lf 1009,9 hPa 0,0 l/m 0 min 0 min 7 W/m 18,0 km/h (3 Bft) 97,87 %
22.01.2018 17:00 7,8 C 7,8 C 5,6 C 89 % 0 lf 1010,0 hPa 0,0 l/m 0 min 0 min 5 W/m 15,8 km/h (3 Bft) 100,00 %
22.01.2018 17:02 7,8 C 7,8 C 5,6 C 89 % 0 lf 1010,0 hPa 0,0 l/m 0 min 0 min 5 W/m 20,3 km/h (4 Bft) 95,74 %
22.01.2018 17:04 7,8 C 7,8 C 5,6 C 89 % 0 lf 1010,0 hPa 0,0 l/m 0 min 0 min 5 W/m 22,5 km/h (4 Bft) 100,00 %
22.01.2018 17:06 7,8 C 7,8 C 5,6 C 89 % 0 lf 1010,0 hPa 0,0 l/m 0 min 0 min 0 W/m 22,5 km/h (4 Bft) 97,83 %
22.01.2018 17:08 7,8 C 7,8 C 5,6 C 89 % 0 lf 1010,1 hPa 0,0 l/m 0 min 0 min 0 W/m 18,0 km/h (3 Bft) 95,74 %
22.01.2018 17:10 7,8 C 7,2 C 5,6 C 89 % 0 lf 1010,2 hPa 0,0 l/m 0 min 0 min 0 W/m 13,5 km/h (3 Bft) 100,00 %
22.01.2018 17:12 7,8 C 7,2 C 5,6 C 89 % 0 lf 1010,2 hPa 0,0 l/m 0 min 0 min 0 W/m 15,8 km/h (3 Bft) 100,00 %
22.01.2018 17:14 7,8 C 7,2 C 5,6 C 89 % 0 lf 1010,4 hPa 0,0 l/m 0 min 0 min 0 W/m 13,5 km/h (3 Bft) 97,87 %
22.01.2018 17:16 7,7 C 7,2 C 5,6 C 89 % 0 lf 1010,4 hPa 0,0 l/m 0 min 0 min 0 W/m 18,0 km/h (3 Bft) 100,00 %
22.01.2018 17:18 7,7 C 7,2 C 5,6 C 89 % 0 lf 1010,5 hPa 0,0 l/m 0 min 0 min 0 W/m 15,8 km/h (3 Bft) 97,87 %
22.01.2018 17:20 7,7 C 7,2 C 5,6 C 89 % 2 lf 1010,6 hPa 0,0 l/m 0 min 2 min 0 W/m 18,0 km/h (3 Bft) 95,74 %
22.01.2018 17:22 7,7 C 7,2 C 5,6 C 89 % 1 lf 1010,7 hPa 0,0 l/m 0 min 0 min 0 W/m 11,3 km/h (2 Bft) 93,62 %
22.01.2018 17:24 7,7 C 7,2 C 5,6 C 89 % 0 lf 1010,8 hPa 0,0 l/m 0 min 0 min 0 W/m 15,8 km/h (3 Bft) 95,74 %
22.01.2018 17:26 7,7 C 7,2 C 5,6 C 90 % 0 lf 1010,8 hPa 0,0 l/m 0 min 0 min 0 W/m 15,8 km/h (3 Bft) 95,74 %
22.01.2018 17:28 7,7 C 7,2 C 6,1 C 90 % 0 lf 1010,9 hPa 0,0 l/m 0 min 0 min 0 W/m 22,5 km/h (4 Bft) 93,48 %
22.01.2018 17:30 7,7 C 7,2 C 6,1 C 90 % 0 lf 1010,8 hPa 0,0 l/m 0 min 0 min 0 W/m 13,5 km/h (3 Bft) 95,74 %
22.01.2018 17:32 7,7 C 7,2 C 5,6 C 90 % 0 lf 1010,9 hPa 0,0 l/m 0 min 0 min 0 W/m 13,5 km/h (3 Bft) 91,49 %
22.01.2018 17:34 7,7 C 7,2 C 5,6 C 90 % 0 lf 1011,0 hPa 0,0 l/m 0 min 0 min 0 W/m 11,3 km/h (2 Bft) 93,62 %
22.01.2018 17:36 7,7 C 7,2 C 5,6 C 90 % 0 lf 1011,0 hPa 0,0 l/m 0 min 0 min 0 W/m 15,8 km/h (3 Bft) 93,62 %
22.01.2018 17:38 7,7 C 7,2 C 6,1 C 90 % 0 lf 1011,0 hPa 0,0 l/m 0 min 0 min 0 W/m 15,8 km/h (3 Bft) 93,62 %
22.01.2018 17:40 7,7 C 7,2 C 5,6 C 90 % 0 lf 1011,0 hPa 0,0 l/m 0 min 0 min 0 W/m 13,5 km/h (3 Bft) 91,30 %
22.01.2018 17:42 7,7 C 7,2 C 5,6 C 90 % 0 lf 1011,1 hPa 0,0 l/m 0 min 0 min 0 W/m 13,5 km/h (3 Bft) 87,23 %
22.01.2018 17:44 7,6 C 7,2 C 5,6 C 90 % 0 lf 1011,1 hPa 0,0 l/m 0 min 0 min 0 W/m 13,5 km/h (3 Bft) 91,49 %
22.01.2018 17:46 7,6 C 7,2 C 5,6 C 90 % 0 lf 1011,3 hPa 0,0 l/m 0 min 0 min 0 W/m 13,5 km/h (3 Bft) 93,62 %
22.01.2018 17:48 7,6 C 7,2 C 5,6 C 90 % 0 lf 1011,3 hPa 0,0 l/m 0 min 0 min 0 W/m 11,3 km/h (2 Bft) 91,49 %
22.01.2018 17:50 7,6 C 7,2 C 5,6 C 90 % 0 lf 1011,2 hPa 0,0 l/m 0 min 0 min 0 W/m 13,5 km/h (3 Bft) 89,36 %
22.01.2018 17:52 7,6 C 7,2 C 5,6 C 90 % 0 lf 1011,1 hPa 0,0 l/m 0 min 0 min 0 W/m 13,5 km/h (3 Bft) 93,48 %
22.01.2018 17:54 7,6 C 7,2 C 5,6 C 90 % 0 lf 1011,2 hPa 0,0 l/m 0 min 0 min 0 W/m 13,5 km/h (3 Bft) 89,36 %
22.01.2018 17:56 7,6 C 7,2 C 5,6 C 90 % 0 lf 1011,3 hPa 0,0 l/m 0 min 0 min 0 W/m 11,3 km/h (2 Bft) 91,49 %
22.01.2018 17:58 7,6 C 7,2 C 5,6 C 90 % 0 lf 1011,3 hPa 0,0 l/m 0 min 0 min 0 W/m 18,0 km/h (3 Bft) 87,23 %
22.01.2018 18:00 7,6 C 7,2 C 5,6 C 90 % 0 lf 1011,3 hPa 0,0 l/m 0 min 0 min 0 W/m 20,3 km/h (4 Bft) 91,49 %
22.01.2018 18:02 7,5 C 7,2 C 5,6 C 90 % 0 lf 1011,4 hPa 0,0 l/m 0 min 0 min 0 W/m 18,0 km/h (3 Bft) 91,49 %
22.01.2018 18:04 7,5 C 7,2 C 5,6 C 90 % 0 lf 1011,5 hPa 0,0 l/m 0 min 0 min 0 W/m 18,0 km/h (3 Bft) 91,30 %
22.01.2018 18:06 7,5 C 7,2 C 5,6 C 90 % 0 lf 1011,4 hPa 0,0 l/m 0 min 0 min 0 W/m 9,0 km/h (2 Bft) 87,50 %
22.01.2018 18:08 7,5 C 7,2 C 5,6 C 90 % 0 lf 1011,5 hPa 0,0 l/m 0 min 0 min 0 W/m 18,0 km/h (3 Bft) 93,62 %
22.01.2018 18:10 7,5 C 7,2 C 5,6 C 90 % 0 lf 1011,5 hPa 0,0 l/m 0 min 0 min 0 W/m 15,8 km/h (3 Bft) 89,36 %
22.01.2018 18:12 7,5 C 7,2 C 5,6 C 90 % 0 lf 1011,5 hPa 0,0 l/m 0 min 0 min 0 W/m 11,3 km/h (2 Bft) 93,62 %
22.01.2018 18:14 7,5 C 7,2 C 5,6 C 90 % 0 lf 1011,6 hPa 0,0 l/m 0 min 0 min 0 W/m 9,0 km/h (2 Bft) 93,62 %
22.01.2018 18:16 7,4 C 7,2 C 5,6 C 91 % 0 lf 1011,7 hPa 0,0 l/m 0 min 0 min 0 W/m 9,0 km/h (2 Bft) 91,30 %
22.01.2018 18:18 7,4 C 7,2 C 5,6 C 91 % 0 lf 1011,7 hPa 0,0 l/m 0 min 0 min 0 W/m 9,0 km/h (2 Bft) 95,74 %
22.01.2018 18:20 7,4 C 7,2 C 5,6 C 91 % 0 lf 1011,8 hPa 0,0 l/m 0 min 0 min 0 W/m 11,3 km/h (2 Bft) 95,74 %
22.01.2018 18:22 7,4 C 7,2 C 5,6 C 91 % 0 lf 1011,8 hPa 0,0 l/m 0 min 0 min 0 W/m 9,0 km/h (2 Bft) 93,62 %
22.01.2018 18:24 7,4 C 7,2 C 5,6 C 91 % 0 lf 1011,8 hPa 0,0 l/m 0 min 0 min 0 W/m 15,8 km/h (3 Bft) 97,87 %
22.01.2018 18:26 7,4 C 7,2 C 5,6 C 91 % 0 lf 1011,8 hPa 0,0 l/m 0 min 0 min 0 W/m 13,5 km/h (3 Bft) 95,74 %
22.01.2018 18:28 7,4 C 7,2 C 5,6 C 91 % 0 lf 1011,8 hPa 0,0 l/m 0 min 0 min 0 W/m 11,3 km/h (2 Bft) 97,83 %
22.01.2018 18:30 7,4 C 7,2 C 5,6 C 91 % 0 lf 1011,9 hPa 0,0 l/m 0 min 0 min 0 W/m 15,8 km/h (3 Bft) 97,87 %
22.01.2018 18:32 7,4 C 7,2 C 5,6 C 91 % 0 lf 1011,9 hPa 0,0 l/m 0 min 0 min 0 W/m 13,5 km/h (3 Bft) 97,56 %
22.01.2018 18:34 7,4 C 7,2 C 5,6 C 91 % 0 lf 1011,9 hPa 0,0 l/m 0 min 0 min 0 W/m 13,5 km/h (3 Bft) 95,74 %
22.01.2018 18:36 7,4 C 7,2 C 5,6 C 91 % 0 lf 1011,9 hPa 0,0 l/m 0 min 0 min 0 W/m 9,0 km/h (2 Bft) 98,11 %
22.01.2018 18:38 7,4 C 7,2 C 5,6 C 91 % 0 lf 1011,9 hPa 0,0 l/m 0 min 0 min 0 W/m 13,5 km/h (3 Bft) 97,83 %
22.01.2018 18:40 7,4 C 7,2 C 5,6 C 91 % 0 lf 1012,0 hPa 0,0 l/m 0 min 0 min 0 W/m 13,5 km/h (3 Bft) 97,87 %
22.01.2018 18:42 7,4 C 7,2 C 5,6 C 91 % 0 lf 1012,0 hPa 0,0 l/m 0 min 0 min 0 W/m 15,8 km/h (3 Bft) 97,87 %
22.01.2018 18:44 7,3 C 7,2 C 5,6 C 91 % 0 lf 1012,1 hPa 0,0 l/m 0 min 0 min 0 W/m 15,8 km/h (3 Bft) 100,00 %
22.01.2018 18:46 7,3 C 7,2 C 5,6 C 91 % 0 lf 1012,1 hPa 0,0 l/m 0 min 0 min 0 W/m 15,8 km/h (3 Bft) 100,00 %
22.01.2018 18:48 7,3 C 7,2 C 5,6 C 91 % 0 lf 1012,2 hPa 0,0 l/m 0 min 0 min 0 W/m 13,5 km/h (3 Bft) 100,00 %
22.01.2018 18:50 7,3 C 7,2 C 5,6 C 91 % 0 lf 1012,3 hPa 0,0 l/m 0 min 0 min 0 W/m 11,3 km/h (2 Bft) 100,00 %
22.01.2018 18:52 7,3 C 7,2 C 5,6 C 91 % 0 lf 1012,3 hPa 0,0 l/m 0 min 0 min 0 W/m 9,0 km/h (2 Bft) 97,83 %
22.01.2018 18:54 7,3 C 7,2 C 5,6 C 91 % 0 lf 1012,4 hPa 0,0 l/m 0 min 0 min 0 W/m 13,5 km/h (3 Bft) 100,00 %
22.01.2018 18:56 7,3 C 7,2 C 5,6 C 92 % 0 lf 1012,4 hPa 0,0 l/m 0 min 0 min 0 W/m 11,3 km/h (2 Bft) 100,00 %
22.01.2018 18:58 7,3 C 7,2 C 5,6 C 92 % 0 lf 1012,4 hPa 0,0 l/m 0 min 0 min 0 W/m 13,5 km/h (3 Bft) 100,00 %
22.01.2018 19:00 7,3 C 6,7 C 5,6 C 92 % 0 lf 1012,5 hPa 0,0 l/m 0 min 0 min 0 W/m 9,0 km/h (2 Bft) 97,87 %
22.01.2018 19:02 7,3 C 6,7 C 5,6 C 92 % 0 lf 1012,5 hPa 0,0 l/m 0 min 0 min 0 W/m 11,3 km/h (2 Bft) 100,00 %
22.01.2018 19:04 7,3 C 6,7 C 5,6 C 92 % 0 lf 1012,5 hPa 0,0 l/m 0 min 0 min 0 W/m 15,8 km/h (3 Bft) 100,00 %
22.01.2018 19:06 7,3 C 6,7 C 5,6 C 92 % 0 lf 1012,5 hPa 0,0 l/m 0 min 0 min 0 W/m 18,0 km/h (3 Bft) 100,00 %
22.01.2018 19:08 7,3 C 6,7 C 5,6 C 92 % 0 lf 1012,6 hPa 0,0 l/m 0 min 0 min 0 W/m 11,3 km/h (2 Bft) 100,00 %
22.01.2018 19:10 7,3 C 6,7 C 5,6 C 92 % 0 lf 1012,6 hPa 0,0 l/m 0 min 0 min 0 W/m 20,3 km/h (4 Bft) 100,00 %
22.01.2018 19:12 7,3 C 6,7 C 5,6 C 92 % 0 lf 1012,6 hPa 0,0 l/m 0 min 0 min 0 W/m 11,3 km/h (2 Bft) 100,00 %
22.01.2018 19:14 7,2 C 6,7 C 5,6 C 92 % 0 lf 1012,6 hPa 0,0 l/m 0 min 0 min 0 W/m 11,3 km/h (2 Bft) 97,87 %
22.01.2018 19:16 7,2 C 6,7 C 5,6 C 92 % 0 lf 1012,7 hPa 0,0 l/m 0 min 0 min 0 W/m 15,8 km/h (3 Bft) 97,83 %
22.01.2018 19:18 7,2 C 7,2 C 5,6 C 92 % 0 lf 1012,8 hPa 0,0 l/m 0 min 0 min 0 W/m 15,8 km/h (3 Bft) 100,00 %
22.01.2018 19:20 7,2 C 7,2 C 5,6 C 92 % 0 lf 1012,9 hPa 0,0 l/m 0 min 0 min 0 W/m 18,0 km/h (3 Bft) 97,87 %
22.01.2018 19:22 7,2 C 7,2 C 5,6 C 92 % 0 lf 1012,9 hPa 0,0 l/m 0 min 0 min 0 W/m 13,5 km/h (3 Bft) 95,74 %
22.01.2018 19:24 7,2 C 7,2 C 5,6 C 92 % 0 lf 1013,0 hPa 0,0 l/m 0 min 0 min 0 W/m 13,5 km/h (3 Bft) 93,62 %
22.01.2018 19:26 7,2 C 7,2 C 5,6 C 92 % 0 lf 1013,0 hPa 0,0 l/m 0 min 0 min 0 W/m 13,5 km/h (3 Bft) 97,87 %
22.01.2018 19:28 7,2 C 7,2 C 5,6 C 92 % 0 lf 1013,1 hPa 0,0 l/m 0 min 0 min 0 W/m 13,5 km/h (3 Bft) 97,83 %
22.01.2018 19:30 7,2 C 7,2 C 5,6 C 92 % 0 lf 1013,1 hPa 0,0 l/m 0 min 0 min 0 W/m 18,0 km/h (3 Bft) 100,00 %
22.01.2018 19:32 7,2 C 7,2 C 5,6 C 93 % 0 lf 1013,2 hPa 0,0 l/m 0 min 0 min 0 W/m 20,3 km/h (4 Bft) 95,74 %
22.01.2018 19:34 7,2 C 7,2 C 5,6 C 93 % 0 lf 1013,2 hPa 0,0 l/m 0 min 0 min 0 W/m 13,5 km/h (3 Bft) 100,00 %
22.01.2018 19:36 7,2 C 7,2 C 5,6 C 93 % 0 lf 1013,2 hPa 0,0 l/m 0 min 0 min 0 W/m 15,8 km/h (3 Bft) 97,87 %
22.01.2018 19:38 7,2 C 7,2 C 5,6 C 93 % 0 lf 1013,3 hPa 0,0 l/m 0 min 0 min 0 W/m 11,3 km/h (2 Bft) 97,83 %
22.01.2018 19:40 7,2 C 7,2 C 5,6 C 93 % 0 lf 1013,4 hPa 0,0 l/m 0 min 0 min 0 W/m 18,0 km/h (3 Bft) 97,87 %
22.01.2018 19:42 7,2 C 7,2 C 5,6 C 93 % 0 lf 1013,4 hPa 0,0 l/m 0 min 0 min 0 W/m 18,0 km/h (3 Bft) 97,87 %
22.01.2018 19:44 7,2 C 7,2 C 5,6 C 93 % 0 lf 1013,4 hPa 0,0 l/m 0 min 0 min 0 W/m 13,5 km/h (3 Bft) 97,87 %
22.01.2018 19:46 7,2 C 7,2 C 5,6 C 93 % 0 lf 1013,4 hPa 0,0 l/m 0 min 0 min 0 W/m 11,3 km/h (2 Bft) 97,87 %
22.01.2018 19:48 7,2 C 7,2 C 5,6 C 93 % 0 lf 1013,5 hPa 0,0 l/m 0 min 0 min 0 W/m 18,0 km/h (3 Bft) 97,87 %
22.01.2018 19:50 7,2 C 7,2 C 5,6 C 93 % 0 lf 1013,5 hPa 0,0 l/m 0 min 0 min 0 W/m 18,0 km/h (3 Bft) 95,65 %
22.01.2018 19:52 7,2 C 7,2 C 5,6 C 93 % 0 lf 1013,5 hPa 0,0 l/m 0 min 0 min 0 W/m 13,5 km/h (3 Bft) 97,87 %
22.01.2018 19:54 7,2 C 7,2 C 5,6 C 93 % 0 lf 1013,5 hPa 0,0 l/m 0 min 0 min 0 W/m 15,8 km/h (3 Bft) 97,87 %
22.01.2018 19:56 7,2 C 7,2 C 5,6 C 93 % 0 lf 1013,5 hPa 0,0 l/m 0 min 0 min 0 W/m 20,3 km/h (4 Bft) 97,87 %
22.01.2018 19:58 7,2 C 7,2 C 5,6 C 93 % 0 lf 1013,7 hPa 0,0 l/m 0 min 0 min 0 W/m 18,0 km/h (3 Bft) 97,87 %
22.01.2018 20:00 7,2 C 7,2 C 5,6 C 93 % 0 lf 1013,7 hPa 0,0 l/m 0 min 0 min 0 W/m 18,0 km/h (3 Bft) 97,87 %
22.01.2018 20:02 7,2 C 7,2 C 5,6 C 93 % 0 lf 1013,8 hPa 0,0 l/m 0 min 0 min 0 W/m 20,3 km/h (4 Bft) 95,65 %
22.01.2018 20:04 7,2 C 7,2 C 5,6 C 93 % 0 lf 1013,8 hPa 0,0 l/m 0 min 0 min 0 W/m 18,0 km/h (3 Bft) 97,87 %
22.01.2018 20:06 7,1 C 7,2 C 5,6 C 93 % 0 lf 1014,0 hPa 0,0 l/m 0 min 0 min 0 W/m 9,0 km/h (2 Bft) 97,87 %
22.01.2018 20:08 7,1 C 7,2 C 5,6 C 93 % 0 lf 1014,0 hPa 0,0 l/m 0 min 0 min 0 W/m 11,3 km/h (2 Bft) 100,00 %
22.01.2018 20:10 7,1 C 7,2 C 5,6 C 93 % 0 lf 1014,0 hPa 0,0 l/m 0 min 0 min 0 W/m 20,3 km/h (4 Bft) 100,00 %
22.01.2018 20:12 7,1 C 7,2 C 5,6 C 93 % 0 lf 1014,0 hPa 0,0 l/m 0 min 0 min 0 W/m 18,0 km/h (3 Bft) 97,87 %
22.01.2018 20:14 7,1 C 7,2 C 5,6 C 93 % 0 lf 1014,0 hPa 0,0 l/m 0 min 0 min 0 W/m 20,3 km/h (4 Bft) 95,65 %
22.01.2018 20:16 7,1 C 7,2 C 5,6 C 93 % 0 lf 1014,0 hPa 0,0 l/m 0 min 0 min 0 W/m 20,3 km/h (4 Bft) 97,87 %
22.01.2018 20:18 7,1 C 7,2 C 5,6 C 93 % 0 lf 1014,0 hPa 0,0 l/m 0 min 0 min 0 W/m 13,5 km/h (3 Bft) 97,87 %
22.01.2018 20:20 7,1 C 7,2 C 5,6 C 93 % 0 lf 1014,0 hPa 0,0 l/m 0 min 0 min 0 W/m 20,3 km/h (4 Bft) 97,87 %
22.01.2018 20:22 7,1 C 7,2 C 5,6 C 93 % 0 lf 1014,0 hPa 0,0 l/m 0 min 0 min 0 W/m 15,8 km/h (3 Bft) 97,87 %
22.01.2018 20:24 7,1 C 7,2 C 5,6 C 93 % 0 lf 1014,1 hPa 0,0 l/m 0 min 0 min 0 W/m 22,5 km/h (4 Bft) 95,74 %
22.01.2018 20:26 7,1 C 7,2 C 5,6 C 93 % 0 lf 1014,1 hPa 0,0 l/m 0 min 0 min 0 W/m 20,3 km/h (4 Bft) 95,65 %
22.01.2018 20:28 7,1 C 7,2 C 5,6 C 93 % 0 lf 1014,1 hPa 0,0 l/m 0 min 0 min 0 W/m 22,5 km/h (4 Bft) 95,74 %
22.01.2018 20:30 7,1 C 7,2 C 5,6 C 93 % 0 lf 1014,2 hPa 0,0 l/m 0 min 0 min 0 W/m 18,0 km/h (3 Bft) 95,74 %
22.01.2018 20:32 7,1 C 6,7 C 5,6 C 93 % 0 lf 1014,3 hPa 0,0 l/m 0 min 0 min 0 W/m 13,5 km/h (3 Bft) 91,49 %
22.01.2018 20:34 7,1 C 6,7 C 5,6 C 93 % 0 lf 1014,3 hPa 0,0 l/m 0 min 0 min 0 W/m 18,0 km/h (3 Bft) 93,62 %
22.01.2018 20:36 7,1 C 6,7 C 5,6 C 93 % 0 lf 1014,3 hPa 0,0 l/m 0 min 0 min 0 W/m 13,5 km/h (3 Bft) 95,74 %
22.01.2018 20:38 7,1 C 6,7 C 5,6 C 93 % 0 lf 1014,4 hPa 0,0 l/m 0 min 0 min 0 W/m 13,5 km/h (3 Bft) 95,65 %
22.01.2018 20:40 7,1 C 6,7 C 5,6 C 93 % 0 lf 1014,3 hPa 0,0 l/m 0 min 0 min 0 W/m 13,5 km/h (3 Bft) 95,74 %
22.01.2018 20:42 7,1 C 6,7 C 5,6 C 93 % 0 lf 1014,3 hPa 0,0 l/m 0 min 0 min 0 W/m 18,0 km/h (3 Bft) 93,62 %
22.01.2018 20:44 7,1 C 6,7 C 5,6 C 93 % 0 lf 1014,5 hPa 0,0 l/m 0 min 0 min 0 W/m 18,0 km/h (3 Bft) 93,62 %
22.01.2018 20:46 7,1 C 6,7 C 5,6 C 93 % 0 lf 1014,4 hPa 0,0 l/m 0 min 0 min 0 W/m 13,5 km/h (3 Bft) 93,62 %
22.01.2018 20:48 7,1 C 6,7 C 5,6 C 93 % 0 lf 1014,4 hPa 0,0 l/m 0 min 0 min 0 W/m 24,8 km/h (4 Bft) 95,65 %
22.01.2018 20:50 7,1 C 6,7 C 5,6 C 93 % 0 lf 1014,5 hPa 0,0 l/m 0 min 0 min 0 W/m 18,0 km/h (3 Bft) 95,74 %
22.01.2018 20:52 7,1 C 6,7 C 5,6 C 93 % 0 lf 1014,4 hPa 0,0 l/m 0 min 0 min 0 W/m 9,0 km/h (2 Bft) 95,74 %
22.01.2018 20:54 7,1 C 6,7 C 5,6 C 93 % 0 lf 1014,5 hPa 0,0 l/m 0 min 0 min 0 W/m 18,0 km/h (3 Bft) 93,62 %
22.01.2018 20:56 7,1 C 6,7 C 5,6 C 93 % 0 lf 1014,5 hPa 0,0 l/m 0 min 0 min 0 W/m 22,5 km/h (4 Bft) 95,74 %
22.01.2018 20:58 7,1 C 6,7 C 5,6 C 93 % 0 lf 1014,5 hPa 0,0 l/m 0 min 0 min 0 W/m 22,5 km/h (4 Bft) 93,62 %
22.01.2018 21:00 7,1 C 6,7 C 5,6 C 93 % 0 lf 1014,5 hPa 0,0 l/m 0 min 0 min 0 W/m 24,8 km/h (4 Bft) 95,65 %
22.01.2018 21:02 7,1 C 6,7 C 5,6 C 93 % 0 lf 1014,5 hPa 0,0 l/m 0 min 0 min 0 W/m 20,3 km/h (4 Bft) 97,87 %
22.01.2018 21:04 7,1 C 6,7 C 5,6 C 93 % 0 lf 1014,6 hPa 0,0 l/m 0 min 0 min 0 W/m 15,8 km/h (3 Bft) 95,74 %
22.01.2018 21:06 7,1 C 6,7 C 5,6 C 93 % 0 lf 1014,7 hPa 0,0 l/m 0 min 0 min 0 W/m 18,0 km/h (3 Bft) 91,49 %
22.01.2018 21:08 7,0 C 6,7 C 5,6 C 93 % 0 lf 1014,8 hPa 0,0 l/m 0 min 0 min 0 W/m 15,8 km/h (3 Bft) 95,74 %
22.01.2018 21:10 7,0 C 6,7 C 5,6 C 93 % 0 lf 1014,7 hPa 0,0 l/m 0 min 0 min 0 W/m 11,3 km/h (2 Bft) 95,74 %
22.01.2018 21:12 7,0 C 6,7 C 5,6 C 93 % 0 lf 1014,8 hPa 0,0 l/m 0 min 0 min 0 W/m 13,5 km/h (3 Bft) 93,48 %
22.01.2018 21:14 7,0 C 6,7 C 5,6 C 93 % 0 lf 1014,8 hPa 0,0 l/m 0 min 0 min 0 W/m 18,0 km/h (3 Bft) 97,87 %
22.01.2018 21:16 7,0 C 6,7 C 5,6 C 93 % 0 lf 1014,9 hPa 0,0 l/m 0 min 0 min 0 W/m 13,5 km/h (3 Bft) 93,62 %
22.01.2018 21:18 7,0 C 6,7 C 5,6 C 93 % 0 lf 1014,9 hPa 0,0 l/m 0 min 0 min 0 W/m 15,8 km/h (3 Bft) 91,49 %
22.01.2018 21:20 7,0 C 6,7 C 5,6 C 93 % 0 lf 1015,0 hPa 0,0 l/m 0 min 0 min 0 W/m 22,5 km/h (4 Bft) 97,87 %
22.01.2018 21:22 6,9 C 6,7 C 5,6 C 93 % 0 lf 1015,0 hPa 0,0 l/m 0 min 0 min 0 W/m 15,8 km/h (3 Bft) 95,74 %
22.01.2018 21:24 6,9 C 6,7 C 5,6 C 93 % 0 lf 1015,0 hPa 0,0 l/m 0 min 0 min 0 W/m 22,5 km/h (4 Bft) 95,65 %
22.01.2018 21:26 6,9 C 6,7 C 5,6 C 93 % 0 lf 1014,9 hPa 0,0 l/m 0 min 0 min 0 W/m 18,0 km/h (3 Bft) 97,87 %
22.01.2018 21:28 6,9 C 6,7 C 5,6 C 93 % 0 lf 1015,0 hPa 0,0 l/m 0 min 0 min 0 W/m 15,8 km/h (3 Bft) 95,74 %
22.01.2018 21:30 6,9 C 6,7 C 5,6 C 93 % 0 lf 1015,1 hPa 0,0 l/m 0 min 0 min 0 W/m 18,0 km/h (3 Bft) 95,74 %
22.01.2018 21:32 6,9 C 6,7 C 5,6 C 93 % 0 lf 1015,2 hPa 0,0 l/m 0 min 0 min 0 W/m 18,0 km/h (3 Bft) 95,74 %
22.01.2018 21:34 6,9 C 6,7 C 5,6 C 93 % 0 lf 1015,1 hPa 0,0 l/m 0 min 0 min 0 W/m 18,0 km/h (3 Bft) 93,62 %
22.01.2018 21:36 6,9 C 6,7 C 5,6 C 93 % 0 lf 1015,1 hPa 0,0 l/m 0 min 0 min 0 W/m 13,5 km/h (3 Bft) 95,65 %
22.01.2018 21:38 6,9 C 6,7 C 5,6 C 92 % 0 lf 1015,1 hPa 0,0 l/m 0 min 0 min 0 W/m 15,8 km/h (3 Bft) 95,74 %
22.01.2018 21:40 6,9 C 6,7 C 5,6 C 92 % 0 lf 1015,0 hPa 0,0 l/m 0 min 0 min 0 W/m 15,8 km/h (3 Bft) 87,23 %
22.01.2018 21:42 6,9 C 6,7 C 5,6 C 92 % 0 lf 1015,1 hPa 0,0 l/m 0 min 0 min 0 W/m 22,5 km/h (4 Bft) 95,74 %
22.01.2018 21:44 6,9 C 6,7 C 5,6 C 92 % 0 lf 1015,2 hPa 0,0 l/m 0 min 0 min 0 W/m 22,5 km/h (4 Bft) 95,74 %
22.01.2018 21:46 6,9 C 6,7 C 5,6 C 92 % 0 lf 1015,4 hPa 0,0 l/m 0 min 0 min 0 W/m 13,5 km/h (3 Bft) 95,74 %
22.01.2018 21:48 6,9 C 6,7 C 5,6 C 92 % 0 lf 1015,3 hPa 0,0 l/m 0 min 0 min 0 W/m 20,3 km/h (4 Bft) 93,48 %
22.01.2018 21:50 6,9 C 6,7 C 5,6 C 92 % 0 lf 1015,3 hPa 0,0 l/m 0 min 0 min 0 W/m 18,0 km/h (3 Bft) 91,49 %
22.01.2018 21:52 6,9 C 6,7 C 5,6 C 92 % 0 lf 1015,4 hPa 0,0 l/m 0 min 0 min 0 W/m 22,5 km/h (4 Bft) 95,74 %
22.01.2018 21:54 6,9 C 6,7 C 5,6 C 92 % 0 lf 1015,4 hPa 0,0 l/m 0 min 0 min 0 W/m 18,0 km/h (3 Bft) 95,74 %
22.01.2018 21:56 6,9 C 6,7 C 5,6 C 92 % 0 lf 1015,4 hPa 0,0 l/m 0 min 0 min 0 W/m 13,5 km/h (3 Bft) 91,49 %
22.01.2018 21:58 6,9 C 6,7 C 5,6 C 92 % 0 lf 1015,5 hPa 0,0 l/m 0 min 0 min 0 W/m 11,3 km/h (2 Bft) 95,74 %
22.01.2018 22:00 6,9 C 6,7 C 5,6 C 92 % 0 lf 1015,5 hPa 0,0 l/m 0 min 0 min 0 W/m 11,3 km/h (2 Bft) 95,65 %
22.01.2018 22:02 6,9 C 6,7 C 5,0 C 92 % 0 lf 1015,6 hPa 0,0 l/m 0 min 0 min 0 W/m 18,0 km/h (3 Bft) 95,74 %
22.01.2018 22:04 6,8 C 6,7 C 5,0 C 92 % 1 lf 1015,6 hPa 0,0 l/m 0 min 0 min 0 W/m 13,5 km/h (3 Bft) 97,87 %
22.01.2018 22:06 6,8 C 6,7 C 5,0 C 92 % 2 lf 1015,6 hPa 0,0 l/m 0 min 0 min 0 W/m 13,5 km/h (3 Bft) 97,87 %
22.01.2018 22:08 6,8 C 6,7 C 5,0 C 92 % 3 lf 1015,6 hPa 0,0 l/m 0 min 0 min 0 W/m 11,3 km/h (2 Bft) 95,74 %
22.01.2018 22:10 6,8 C 6,7 C 5,0 C 92 % 2 lf 1015,6 hPa 0,0 l/m 0 min 0 min 0 W/m 18,0 km/h (3 Bft) 100,00 %
22.01.2018 22:12 6,8 C 6,7 C 5,0 C 92 % 2 lf 1015,8 hPa 0,0 l/m 0 min 0 min 0 W/m 15,8 km/h (3 Bft) 97,83 %
22.01.2018 22:14 6,8 C 6,7 C 5,0 C 92 % 2 lf 1015,8 hPa 0,0 l/m 0 min 0 min 0 W/m 18,0 km/h (3 Bft) 97,87 %
22.01.2018 22:16 6,8 C 6,7 C 5,0 C 92 % 2 lf 1015,8 hPa 0,0 l/m 0 min 0 min 0 W/m 15,8 km/h (3 Bft) 97,87 %
22.01.2018 22:18 6,8 C 6,7 C 5,0 C 92 % 2 lf 1015,7 hPa 0,0 l/m 0 min 0 min 0 W/m 13,5 km/h (3 Bft) 100,00 %
22.01.2018 22:20 6,8 C 6,7 C 5,0 C 92 % 1 lf 1015,8 hPa 0,0 l/m 0 min 0 min 0 W/m 15,8 km/h (3 Bft) 93,62 %
22.01.2018 22:22 6,8 C 6,7 C 5,0 C 92 % 0 lf 1015,8 hPa 0,0 l/m 0 min 0 min 0 W/m 18,0 km/h (3 Bft) 97,83 %
22.01.2018 22:24 6,8 C 6,7 C 5,0 C 92 % 0 lf 1015,8 hPa 0,0 l/m 0 min 0 min 0 W/m 15,8 km/h (3 Bft) 100,00 %
22.01.2018 22:26 6,8 C 6,7 C 5,0 C 92 % 0 lf 1015,8 hPa 0,0 l/m 0 min 0 min 0 W/m 15,8 km/h (3 Bft) 93,62 %
22.01.2018 22:28 6,8 C 6,7 C 5,0 C 92 % 0 lf 1015,8 hPa 0,0 l/m 0 min 0 min 0 W/m 9,0 km/h (2 Bft) 97,87 %
22.01.2018 22:30 6,7 C 6,7 C 5,0 C 92 % 0 lf 1015,8 hPa 0,0 l/m 0 min 0 min 0 W/m 15,8 km/h (3 Bft) 100,00 %
22.01.2018 22:32 6,7 C 6,7 C 5,0 C 92 % 0 lf 1015,9 hPa 0,0 l/m 0 min 0 min 0 W/m 18,0 km/h (3 Bft) 97,87 %
22.01.2018 22:34 6,7 C 6,7 C 5,0 C 92 % 0 lf 1015,8 hPa 0,0 l/m 0 min 0 min 0 W/m 15,8 km/h (3 Bft) 100,00 %
22.01.2018 22:36 6,7 C 6,7 C 5,0 C 93 % 0 lf 1016,0 hPa 0,0 l/m 0 min 0 min 0 W/m 11,3 km/h (2 Bft) 97,87 %
22.01.2018 22:38 6,7 C 6,7 C 5,0 C 93 % 1 lf 1015,9 hPa 0,0 l/m 0 min 0 min 0 W/m 11,3 km/h (2 Bft) 97,87 %
22.01.2018 22:40 6,7 C 6,7 C 5,0 C 93 % 1 lf 1016,0 hPa 0,0 l/m 0 min 0 min 0 W/m 20,3 km/h (4 Bft) 97,87 %
22.01.2018 22:42 6,7 C 6,7 C 5,0 C 93 % 1 lf 1016,1 hPa 0,0 l/m 0 min 2 min 0 W/m 20,3 km/h (4 Bft) 97,87 %
22.01.2018 22:44 6,7 C 6,7 C 5,0 C 93 % 0 lf 1016,1 hPa 0,0 l/m 0 min 0 min 0 W/m 20,3 km/h (4 Bft) 100,00 %
22.01.2018 22:46 6,7 C 6,7 C 5,0 C 93 % 0 lf 1016,1 hPa 0,0 l/m 0 min 0 min 0 W/m 13,5 km/h (3 Bft) 100,00 %
22.01.2018 22:48 6,7 C 6,7 C 5,0 C 93 % 0 lf 1016,1 hPa 0,0 l/m 0 min 0 min 0 W/m 15,8 km/h (3 Bft) 100,00 %
22.01.2018 22:50 6,7 C 6,7 C 5,0 C 93 % 0 lf 1016,1 hPa 0,0 l/m 0 min 0 min 0 W/m 11,3 km/h (2 Bft) 97,87 %
22.01.2018 22:52 6,7 C 6,7 C 5,0 C 93 % 0 lf 1016,2 hPa 0,0 l/m 0 min 2 min 0 W/m 11,3 km/h (2 Bft) 97,87 %
22.01.2018 22:54 6,7 C 6,7 C 5,0 C 93 % 0 lf 1016,2 hPa 0,0 l/m 0 min 0 min 0 W/m 13,5 km/h (3 Bft) 100,00 %
22.01.2018 22:56 6,7 C 6,7 C 5,0 C 93 % 0 lf 1016,1 hPa 0,0 l/m 0 min 0 min 0 W/m 15,8 km/h (3 Bft) 100,00 %
22.01.2018 22:58 6,6 C 6,7 C 5,0 C 93 % 0 lf 1016,2 hPa 0,0 l/m 0 min 0 min 0 W/m 15,8 km/h (3 Bft) 97,83 %
22.01.2018 23:00 6,6 C 6,7 C 5,0 C 93 % 0 lf 1016,3 hPa 0,0 l/m 0 min 0 min 0 W/m 9,0 km/h (2 Bft) 95,74 %
22.01.2018 23:02 6,6 C 6,1 C 5,0 C 93 % 0 lf 1016,2 hPa 0,0 l/m 0 min 0 min 0 W/m 11,3 km/h (2 Bft) 95,83 %
22.01.2018 23:04 6,6 C 6,1 C 5,0 C 93 % 0 lf 1016,3 hPa 0,0 l/m 0 min 0 min 0 W/m 15,8 km/h (3 Bft) 97,87 %
22.01.2018 23:06 6,6 C 6,1 C 5,0 C 93 % 2 lf 1016,3 hPa 0,0 l/m 0 min 2 min 0 W/m 13,5 km/h (3 Bft) 97,87 %
22.01.2018 23:08 6,6 C 6,1 C 5,0 C 93 % 3 lf 1016,3 hPa 0,0 l/m 0 min 0 min 0 W/m 11,3 km/h (2 Bft) 95,65 %
22.01.2018 23:10 6,6 C 6,1 C 5,0 C 93 % 6 lf 1016,4 hPa 0,0 l/m 0 min 0 min 0 W/m 15,8 km/h (3 Bft) 95,74 %
22.01.2018 23:12 6,6 C 6,1 C 5,0 C 93 % 5 lf 1016,5 hPa 0,0 l/m 0 min 2 min 0 W/m 15,8 km/h (3 Bft) 95,74 %
22.01.2018 23:14 6,6 C 6,1 C 5,0 C 93 % 4 lf 1016,5 hPa 0,0 l/m 0 min 0 min 0 W/m 18,0 km/h (3 Bft) 97,87 %
22.01.2018 23:16 6,6 C 6,1 C 5,0 C 93 % 8 lf 1016,6 hPa 0,0 l/m 0 min 2 min 0 W/m 15,8 km/h (3 Bft) 95,74 %
22.01.2018 23:18 6,6 C 6,1 C 5,0 C 93 % 13 lf 1016,6 hPa 0,0 l/m 0 min 2 min 0 W/m 11,3 km/h (2 Bft) 95,74 %
22.01.2018 23:20 6,6 C 6,1 C 5,0 C 93 % 14 lf 1016,6 hPa 0,0 l/m 0 min 2 min 0 W/m 15,8 km/h (3 Bft) 89,13 %
22.01.2018 23:22 6,6 C 6,1 C 4,4 C 93 % 15 lf 1016,6 hPa 0,0 l/m 0 min 2 min 0 W/m 11,3 km/h (2 Bft) 91,49 %
22.01.2018 23:24 6,6 C 5,6 C 4,4 C 93 % 15 lf 1016,7 hPa 0,0 l/m 0 min 2 min 0 W/m 13,5 km/h (3 Bft) 95,74 %
22.01.2018 23:26 6,6 C 5,6 C 4,4 C 93 % 15 lf 1016,7 hPa 0,0 l/m 0 min 2 min 0 W/m 13,5 km/h (3 Bft) 93,62 %
22.01.2018 23:28 6,6 C 5,6 C 4,4 C 93 % 15 lf 1016,8 hPa 0,2 l/m 0 min 2 min 0 W/m 15,8 km/h (3 Bft) 93,62 %
22.01.2018 23:30 6,6 C 5,6 C 4,4 C 93 % 15 lf 1016,9 hPa 0,0 l/m 0 min 2 min 0 W/m 13,5 km/h (3 Bft) 93,62 %
22.01.2018 23:32 6,6 C 5,6 C 4,4 C 93 % 15 lf 1017,0 hPa 0,0 l/m 0 min 2 min 0 W/m 11,3 km/h (2 Bft) 93,48 %
22.01.2018 23:34 6,6 C 5,6 C 4,4 C 93 % 15 lf 1017,0 hPa 0,0 l/m 0 min 2 min 0 W/m 13,5 km/h (3 Bft) 91,49 %
22.01.2018 23:36 6,6 C 5,6 C 4,4 C 93 % 15 lf 1016,9 hPa 0,0 l/m 0 min 2 min 0 W/m 13,5 km/h (3 Bft) 93,62 %
22.01.2018 23:38 6,6 C 5,6 C 4,4 C 93 % 15 lf 1017,0 hPa 0,0 l/m 0 min 2 min 0 W/m 15,8 km/h (3 Bft) 91,49 %
22.01.2018 23:40 6,6 C 5,6 C 4,4 C 93 % 15 lf 1017,0 hPa 0,0 l/m 0 min 0 min 0 W/m 13,5 km/h (3 Bft) 91,49 %
22.01.2018 23:42 6,6 C 5,6 C 4,4 C 94 % 15 lf 1017,0 hPa 0,2 l/m 0 min 2 min 0 W/m 11,3 km/h (2 Bft) 93,62 %
22.01.2018 23:44 6,5 C 5,6 C 4,4 C 94 % 15 lf 1017,0 hPa 0,0 l/m 0 min 2 min 0 W/m 13,5 km/h (3 Bft) 91,30 %
22.01.2018 23:46 6,5 C 5,6 C 4,4 C 94 % 15 lf 1017,0 hPa 0,0 l/m 0 min 2 min 0 W/m 15,8 km/h (3 Bft) 89,36 %
22.01.2018 23:48 6,5 C 5,6 C 4,4 C 94 % 15 lf 1017,1 hPa 0,0 l/m 0 min 2 min 0 W/m 15,8 km/h (3 Bft) 93,62 %
22.01.2018 23:50 6,5 C 5,6 C 4,4 C 94 % 15 lf 1017,0 hPa 0,0 l/m 0 min 2 min 0 W/m 13,5 km/h (3 Bft) 93,62 %
22.01.2018 23:52 6,4 C 5,6 C 4,4 C 94 % 15 lf 1017,1 hPa 0,0 l/m 0 min 2 min 0 W/m 13,5 km/h (3 Bft) 93,62 %
22.01.2018 23:54 6,4 C 5,6 C 4,4 C 94 % 15 lf 1017,1 hPa 0,0 l/m 0 min 2 min 0 W/m 18,0 km/h (3 Bft) 93,62 %
22.01.2018 23:56 6,4 C 5,6 C 4,4 C 94 % 15 lf 1017,2 hPa 0,0 l/m 0 min 0 min 0 W/m 20,3 km/h (4 Bft) 95,65 %
22.01.2018 23:58 6,4 C 5,6 C 4,4 C 94 % 15 lf 1017,2 hPa 0,0 l/m 0 min 0 min 0 W/m 20,3 km/h (4 Bft) 97,87 %
_ Min-Zeit 00:52 00:04 00:18 15:40 11:56 06:26 - - - - 08:22 04:06
Minimum _ 1,6 C 1,1 C 0,0 C 89 % 0 lf 1004,2 hPa - - - - 4,5 km/h (1 Bft) 86,96 %
_ Max-Zeit 14:54 12:48 12:46 10:32 00:26 23:56 00:24 09:58 04:05 12:46 01:42 00:28
Maximum _ 8,4 C 13,3 C 8,3 C 100 % 15 lf 1017,2 hPa 0,2 l/m 2 min 5 min 300 W/m 45,1 km/h
O-SO (6 Bft)
100,00 %
Durchschnitt _ 5,5 C 5,7 C 4,3 C 95 % 8 lf 1008,6 hPa #3,8 l/m #54 min. #7:44 h 88 W/m 17,8 km/h (3 Bft) 96,23 %
© 2018 W. Hausmann